Time,TemperatureF,DewpointF,PressureIn,WindDirection,WindDirectionDegrees,WindSpeedMPH,WindSpeedGustMPH,Humidity,HourlyPrecipIn,Conditions,Clouds,dailyrainin,SoftwareType,DateUTC
2013-10-09 00:01:00,57.7,32.3,29.29,SE,142,7.6,7.6,38,0.00,,CLR,0.00,VWS V14.01,2013-10-09 05:01:00,
2013-10-09 00:02:00,57.7,32.3,29.29,SSE,155,4.0,5.8,38,0.00,,CLR,0.00,VWS V14.01,2013-10-09 05:02:00,
2013-10-09 00:03:00,57.7,32.3,29.29,SSE,158,5.4,5.8,38,0.00,,CLR,0.00,VWS V14.01,2013-10-09 05:03:00,
2013-10-09 00:04:00,57.7,32.3,29.29,SE,133,4.0,5.8,38,0.00,,CLR,0.00,VWS V14.01,2013-10-09 05:04:00,
2013-10-09 00:07:00,57.6,32.2,29.29,SSE,160,4.0,5.8,38,0.00,,CLR,0.00,VWS V14.01,2013-10-09 05:07:00,
2013-10-09 00:08:00,57.6,32.2,29.29,SSE,154,4.9,5.8,38,0.00,,CLR,0.00,VWS V14.01,2013-10-09 05:08:00,
2013-10-09 00:11:00,57.6,32.2,29.29,SSE,153,3.6,4.0,38,0.00,,CLR,0.00,VWS V14.01,2013-10-09 05:11:00,
2013-10-09 00:13:00,57.4,32.0,29.29,SE,144,4.0,5.8,38,0.00,,CLR,0.00,VWS V14.01,2013-10-09 05:13:00,
2013-10-09 00:14:00,57.4,32.0,29.29,SSE,162,4.0,5.8,38,0.00,,CLR,0.00,VWS V14.01,2013-10-09 05:14:00,
2013-10-09 00:16:00,57.2,31.8,29.29,South,171,4.0,5.4,38,0.00,,CLR,0.00,VWS V14.01,2013-10-09 05:16:00,
2013-10-09 00:17:00,57.2,31.8,29.29,South,179,5.8,5.8,38,0.00,,CLR,0.00,VWS V14.01,2013-10-09 05:17:00,
2013-10-09 00:19:00,57.2,31.8,29.29,SSE,151,4.9,4.9,38,0.00,,CLR,0.00,VWS V14.01,2013-10-09 05:19:00,
2013-10-09 00:20:00,57.2,31.8,29.29,SSE,153,5.4,5.4,38,0.00,,CLR,0.00,VWS V14.01,2013-10-09 05:20:00,
2013-10-09 00:21:00,57.2,31.8,29.29,South,172,2.7,3.1,38,0.00,,CLR,0.00,VWS V14.01,2013-10-09 05:21:00,
2013-10-09 00:22:00,57.0,33.0,29.29,SSE,162,4.0,4.0,40,0.00,,CLR,0.00,VWS V14.01,2013-10-09 05:22:00,
2013-10-09 00:23:00,57.0,33.0,29.29,SSE,158,4.0,5.4,40,0.00,,CLR,0.00,VWS V14.01,2013-10-09 05:23:00,
2013-10-09 00:24:00,56.8,32.8,29.29,SSE,158,3.6,3.6,40,0.00,,CLR,0.00,VWS V14.01,2013-10-09 05:24:00,
2013-10-09 00:25:00,56.8,32.8,29.29,SSE,158,3.6,3.6,40,0.00,,CLR,0.00,VWS V14.01,2013-10-09 05:25:00,
2013-10-09 00:26:00,56.8,32.8,29.29,SSE,156,3.6,3.6,40,0.00,,CLR,0.00,VWS V14.01,2013-10-09 05:26:00,
2013-10-09 00:27:00,56.7,32.6,29.29,SSE,159,3.1,3.6,40,0.00,,CLR,0.00,VWS V14.01,2013-10-09 05:27:00,
2013-10-09 00:29:00,56.7,32.6,29.29,SSE,159,2.7,4.0,40,0.00,,CLR,0.00,VWS V14.01,2013-10-09 05:29:00,
2013-10-09 00:31:00,56.5,32.5,29.29,SSE,161,3.1,4.9,40,0.00,,CLR,0.00,VWS V14.01,2013-10-09 05:31:00,
2013-10-09 00:32:00,56.5,32.5,29.29,SSE,161,3.6,3.6,40,0.00,,CLR,0.00,VWS V14.01,2013-10-09 05:32:00,
2013-10-09 00:33:00,56.5,32.5,29.29,SSE,157,4.0,4.0,40,0.00,,CLR,0.00,VWS V14.01,2013-10-09 05:33:00,
2013-10-09 00:34:00,56.5,32.5,29.29,SSE,157,2.7,4.0,40,0.00,,CLR,0.00,VWS V14.01,2013-10-09 05:34:00,
2013-10-09 00:36:00,56.3,32.3,29.29,SSE,159,3.6,4.0,40,0.00,,CLR,0.00,VWS V14.01,2013-10-09 05:36:00,
2013-10-09 00:38:00,56.3,32.3,29.29,SSE,161,2.7,2.7,40,0.00,,CLR,0.00,VWS V14.01,2013-10-09 05:38:00,
2013-10-09 00:39:00,56.3,34.7,29.32,SSE,161,3.1,3.1,44,0.00,,CLR,0.00,VWS V14.01,2013-10-09 05:39:00,
2013-10-09 00:40:00,56.3,34.7,29.32,SSE,163,3.6,3.6,44,0.00,,CLR,0.00,VWS V14.01,2013-10-09 05:40:00,
2013-10-09 00:42:00,56.1,34.5,29.32,SSE,164,2.7,2.7,44,0.00,,CLR,0.00,VWS V14.01,2013-10-09 05:42:00,
2013-10-09 00:43:00,56.1,34.5,29.32,SSE,152,4.9,4.9,44,0.00,,CLR,0.00,VWS V14.01,2013-10-09 05:43:00,
2013-10-09 00:46:00,56.1,34.5,29.32,SSE,154,4.0,4.0,44,0.00,,CLR,0.00,VWS V14.01,2013-10-09 05:46:00,
2013-10-09 00:47:00,56.1,34.5,29.32,SSE,155,3.6,3.6,44,0.00,,CLR,0.00,VWS V14.01,2013-10-09 05:47:00,
2013-10-09 00:49:00,56.1,34.5,29.32,SSE,156,2.7,4.9,44,0.00,,CLR,0.00,VWS V14.01,2013-10-09 05:49:00,
2013-10-09 00:50:00,56.1,34.5,29.32,SSE,156,2.7,4.0,44,0.00,,CLR,0.00,VWS V14.01,2013-10-09 05:50:00,
2013-10-09 00:52:00,56.1,34.5,29.32,SSE,156,2.2,3.1,44,0.00,,CLR,0.00,VWS V14.01,2013-10-09 05:52:00,
2013-10-09 00:53:00,55.9,34.4,29.32,SSE,156,0.0,0.0,44,0.00,,CLR,0.00,VWS V14.01,2013-10-09 05:53:00,
2013-10-09 00:55:00,55.9,34.4,29.32,SSE,156,2.2,3.1,44,0.00,,CLR,0.00,VWS V14.01,2013-10-09 05:55:00,
2013-10-09 00:57:00,55.9,34.4,29.32,SSE,156,2.7,2.7,44,0.00,,CLR,0.00,VWS V14.01,2013-10-09 05:57:00,
2013-10-09 00:58:00,55.9,34.4,29.32,SSE,156,2.7,3.6,44,0.00,,CLR,0.00,VWS V14.01,2013-10-09 05:58:00,
2013-10-09 00:59:00,55.9,34.4,29.32,SSE,156,2.2,2.2,44,0.00,,CLR,0.00,VWS V14.01,2013-10-09 05:59:00,
2013-10-09 01:01:00,55.8,34.2,29.32,SSE,156,0.0,0.0,44,0.00,,CLR,0.00,VWS V14.01,2013-10-09 06:01:00,
2013-10-09 01:02:00,55.8,37.4,29.32,SSE,156,0.0,2.7,50,0.00,,CLR,0.00,VWS V14.01,2013-10-09 06:02:00,
2013-10-09 01:03:00,55.9,37.6,29.32,SSE,148,3.1,4.0,50,0.00,,CLR,0.00,VWS V14.01,2013-10-09 06:03:00,
2013-10-09 01:04:00,55.9,37.6,29.32,SSE,148,3.1,3.1,50,0.00,,CLR,0.00,VWS V14.01,2013-10-09 06:04:00,
2013-10-09 01:06:00,55.9,37.6,29.32,SSE,148,0.0,0.0,50,0.00,,CLR,0.00,VWS V14.01,2013-10-09 06:06:00,
2013-10-09 01:07:00,55.8,37.4,29.32,SSE,148,0.0,0.0,50,0.00,,CLR,0.00,VWS V14.01,2013-10-09 06:07:00,
2013-10-09 01:09:00,55.8,37.4,29.32,SSE,148,2.7,2.7,50,0.00,,CLR,0.00,VWS V14.01,2013-10-09 06:09:00,
2013-10-09 01:10:00,55.8,37.4,29.32,SSE,147,2.7,2.7,50,0.00,,CLR,0.00,VWS V14.01,2013-10-09 06:10:00,
2013-10-09 01:12:00,55.8,37.4,29.32,SSE,151,0.0,0.0,50,0.00,,CLR,0.00,VWS V14.01,2013-10-09 06:12:00,
2013-10-09 01:13:00,55.8,37.4,29.32,SE,146,3.1,3.1,50,0.00,,CLR,0.00,VWS V14.01,2013-10-09 06:13:00,
2013-10-09 01:14:00,55.8,37.4,29.32,SE,146,0.0,3.1,50,0.00,,CLR,0.00,VWS V14.01,2013-10-09 06:14:00,
2013-10-09 01:15:00,55.8,37.4,29.32,SE,146,2.7,2.7,50,0.00,,CLR,0.00,VWS V14.01,2013-10-09 06:15:00,
2013-10-09 01:17:00,55.6,37.2,29.32,SE,146,4.0,4.0,50,0.00,,CLR,0.00,VWS V14.01,2013-10-09 06:17:00,
2013-10-09 01:18:00,55.6,37.2,29.32,SSE,147,0.0,4.0,50,0.00,,CLR,0.00,VWS V14.01,2013-10-09 06:18:00,
2013-10-09 01:20:00,55.6,37.2,29.32,SE,146,0.0,0.0,50,0.00,,CLR,0.00,VWS V14.01,2013-10-09 06:20:00,
2013-10-09 01:21:00,55.4,37.1,29.32,SSE,147,0.0,0.0,50,0.00,,CLR,0.00,VWS V14.01,2013-10-09 06:21:00,
2013-10-09 01:24:00,55.4,37.1,29.32,SSE,147,3.1,3.6,50,0.00,,CLR,0.00,VWS V14.01,2013-10-09 06:24:00,
2013-10-09 01:25:00,55.2,37.9,29.32,SSE,149,3.1,3.1,52,0.00,,CLR,0.00,VWS V14.01,2013-10-09 06:25:00,
2013-10-09 01:26:00,55.2,37.9,29.32,SSE,149,3.1,3.1,52,0.00,,CLR,0.00,VWS V14.01,2013-10-09 06:26:00,
2013-10-09 01:27:00,55.2,37.9,29.32,SSE,149,3.1,3.1,52,0.00,,CLR,0.00,VWS V14.01,2013-10-09 06:27:00,
2013-10-09 01:29:00,55.2,37.9,29.32,SSE,150,3.1,3.1,52,0.00,,CLR,0.00,VWS V14.01,2013-10-09 06:29:00,
2013-10-09 01:30:00,55.2,37.9,29.32,SSE,150,2.7,3.1,52,0.00,,CLR,0.00,VWS V14.01,2013-10-09 06:30:00,
2013-10-09 01:31:00,55.0,37.8,29.32,SSE,150,4.0,4.0,52,0.00,,CLR,0.00,VWS V14.01,2013-10-09 06:31:00,
2013-10-09 01:32:00,55.0,37.8,29.32,SSE,150,3.6,3.6,52,0.00,,CLR,0.00,VWS V14.01,2013-10-09 06:32:00,
2013-10-09 01:33:00,55.0,37.8,29.32,SSE,150,0.0,3.6,52,0.00,,CLR,0.00,VWS V14.01,2013-10-09 06:33:00,
2013-10-09 01:35:00,55.0,37.8,29.32,SSE,150,0.0,0.0,52,0.00,,CLR,0.00,VWS V14.01,2013-10-09 06:35:00,
2013-10-09 01:36:00,55.0,37.8,29.32,SSE,150,0.0,0.0,52,0.00,,CLR,0.00,VWS V14.01,2013-10-09 06:36:00,
2013-10-09 01:38:00,55.0,37.8,29.32,SSE,150,0.0,0.0,52,0.00,,CLR,0.00,VWS V14.01,2013-10-09 06:38:00,
2013-10-09 01:39:00,55.0,37.8,29.32,SSE,150,0.0,3.1,52,0.00,,CLR,0.00,VWS V14.01,2013-10-09 06:39:00,
2013-10-09 01:40:00,54.9,37.6,29.32,SSE,150,0.0,2.2,52,0.00,,CLR,0.00,VWS V14.01,2013-10-09 06:40:00,
2013-10-09 01:41:00,54.9,37.6,29.32,SSE,150,0.0,2.2,52,0.00,,CLR,0.00,VWS V14.01,2013-10-09 06:41:00,
2013-10-09 01:42:00,54.9,37.6,29.32,SSE,150,0.0,0.0,52,0.00,,CLR,0.00,VWS V14.01,2013-10-09 06:42:00,
2013-10-09 01:44:00,54.9,37.6,29.32,SSE,150,2.2,2.7,52,0.00,,CLR,0.00,VWS V14.01,2013-10-09 06:44:00,
2013-10-09 01:46:00,54.7,37.4,29.32,SSE,150,0.0,0.0,52,0.00,,CLR,0.00,VWS V14.01,2013-10-09 06:46:00,
2013-10-09 01:48:00,54.7,37.4,29.32,SSE,153,0.0,0.0,52,0.00,,CLR,0.00,VWS V14.01,2013-10-09 06:48:00,
2013-10-09 01:50:00,54.7,37.4,29.32,SSE,153,3.1,3.1,52,0.00,,CLR,0.00,VWS V14.01,2013-10-09 06:50:00,
2013-10-09 01:51:00,54.7,37.4,29.32,SSE,153,3.1,3.1,52,0.00,,CLR,0.00,VWS V14.01,2013-10-09 06:51:00,
2013-10-09 01:52:00,54.7,37.4,29.32,SSE,152,2.7,3.1,52,0.00,,CLR,0.00,VWS V14.01,2013-10-09 06:52:00,
2013-10-09 01:53:00,54.7,37.4,29.32,SSE,152,3.1,4.0,52,0.00,,CLR,0.00,VWS V14.01,2013-10-09 06:53:00,
2013-10-09 01:56:00,54.7,38.4,29.32,SSE,147,2.7,2.7,54,0.00,,CLR,0.00,VWS V14.01,2013-10-09 06:56:00,
2013-10-09 01:57:00,54.7,38.4,29.32,SSE,147,2.7,3.6,54,0.00,,CLR,0.00,VWS V14.01,2013-10-09 06:57:00,
2013-10-09 01:58:00,54.7,38.4,29.32,SSE,147,0.0,2.2,54,0.00,,CLR,0.00,VWS V14.01,2013-10-09 06:58:00,
2013-10-09 01:59:00,54.7,38.4,29.32,SSE,147,0.0,0.0,54,0.00,,CLR,0.00,VWS V14.01,2013-10-09 06:59:00,
2013-10-09 02:01:00,54.5,38.2,29.32,SE,144,3.1,3.1,54,0.00,,CLR,0.00,VWS V14.01,2013-10-09 07:01:00,
2013-10-09 02:02:00,54.5,38.2,29.32,SE,145,2.7,3.1,54,0.00,,CLR,0.00,VWS V14.01,2013-10-09 07:02:00,
2013-10-09 02:03:00,54.5,38.2,29.32,SE,137,0.0,0.0,54,0.00,,CLR,0.00,VWS V14.01,2013-10-09 07:03:00,
2013-10-09 02:04:00,54.5,38.2,29.32,SE,143,0.0,3.1,54,0.00,,CLR,0.00,VWS V14.01,2013-10-09 07:04:00,
2013-10-09 02:05:00,54.5,38.2,29.32,SE,143,2.7,3.1,54,0.00,,CLR,0.00,VWS V14.01,2013-10-09 07:05:00,
2013-10-09 02:06:00,54.5,38.2,29.32,SE,142,3.1,3.1,54,0.00,,CLR,0.00,VWS V14.01,2013-10-09 07:06:00,
2013-10-09 02:07:00,54.5,38.2,29.32,SE,142,3.1,3.6,54,0.00,,CLR,0.00,VWS V14.01,2013-10-09 07:07:00,
2013-10-09 02:09:00,54.5,38.2,29.32,SSE,153,0.0,0.0,54,0.00,,CLR,0.00,VWS V14.01,2013-10-09 07:09:00,
2013-10-09 02:10:00,54.3,38.0,29.32,SSE,159,0.0,2.7,54,0.00,,CLR,0.00,VWS V14.01,2013-10-09 07:10:00,
2013-10-09 02:11:00,54.3,38.0,29.32,SSE,159,2.2,2.7,54,0.00,,CLR,0.00,VWS V14.01,2013-10-09 07:11:00,
2013-10-09 02:12:00,54.3,38.0,29.32,SSE,157,2.2,2.7,54,0.00,,CLR,0.00,VWS V14.01,2013-10-09 07:12:00,
2013-10-09 02:13:00,54.3,38.0,29.32,SSE,157,0.0,2.2,54,0.00,,CLR,0.00,VWS V14.01,2013-10-09 07:13:00,
2013-10-09 02:15:00,54.3,38.0,29.32,ESE,109,0.0,2.2,54,0.00,,CLR,0.00,VWS V14.01,2013-10-09 07:15:00,
2013-10-09 02:17:00,54.3,39.0,29.32,SE,128,0.0,0.0,56,0.00,,CLR,0.00,VWS V14.01,2013-10-09 07:17:00,
2013-10-09 02:18:00,54.3,39.0,29.32,SE,128,0.0,0.0,56,0.00,,CLR,0.00,VWS V14.01,2013-10-09 07:18:00,
2013-10-09 02:19:00,54.3,39.0,29.32,SE,128,0.0,0.0,56,0.00,,CLR,0.00,VWS V14.01,2013-10-09 07:19:00,
2013-10-09 02:21:00,54.3,39.0,29.32,SE,126,0.0,0.0,56,0.00,,CLR,0.00,VWS V14.01,2013-10-09 07:21:00,
2013-10-09 02:23:00,54.3,38.0,29.32,SE,127,0.0,0.0,54,0.00,,CLR,0.00,VWS V14.01,2013-10-09 07:23:00,
2013-10-09 02:24:00,54.3,38.0,29.32,SE,127,0.0,0.0,54,0.00,,CLR,0.00,VWS V14.01,2013-10-09 07:24:00,
2013-10-09 02:26:00,54.0,37.7,29.32,SE,133,0.0,0.0,54,0.00,,CLR,0.00,VWS V14.01,2013-10-09 07:26:00,
2013-10-09 02:27:00,54.0,37.7,29.32,SE,133,0.0,0.0,54,0.00,,CLR,0.00,VWS V14.01,2013-10-09 07:27:00,
2013-10-09 02:29:00,53.8,37.5,29.32,SE,133,0.0,0.0,54,0.00,,CLR,0.00,VWS V14.01,2013-10-09 07:29:00,
2013-10-09 02:30:00,53.6,37.4,29.32,SE,138,0.0,0.0,54,0.00,,CLR,0.00,VWS V14.01,2013-10-09 07:30:00,
2013-10-09 02:32:00,53.4,38.1,29.32,SE,138,0.0,0.0,56,0.00,,CLR,0.00,VWS V14.01,2013-10-09 07:32:00,
2013-10-09 02:34:00,53.2,38.0,29.32,SE,139,0.0,0.0,56,0.00,,CLR,0.00,VWS V14.01,2013-10-09 07:34:00,
2013-10-09 02:35:00,53.2,38.0,29.32,SE,139,0.0,0.0,56,0.00,,CLR,0.00,VWS V14.01,2013-10-09 07:35:00,
2013-10-09 02:36:00,53.2,38.0,29.32,SE,139,0.0,0.0,56,0.00,,CLR,0.00,VWS V14.01,2013-10-09 07:36:00,
2013-10-09 02:37:00,53.2,38.9,29.32,SE,138,0.0,0.0,58,0.00,,CLR,0.00,VWS V14.01,2013-10-09 07:37:00,
2013-10-09 02:38:00,53.2,38.9,29.32,SE,139,0.0,0.0,58,0.00,,CLR,0.00,VWS V14.01,2013-10-09 07:38:00,
2013-10-09 02:40:00,53.1,38.7,29.32,SE,138,0.0,0.0,58,0.00,,CLR,0.00,VWS V14.01,2013-10-09 07:40:00,
2013-10-09 02:41:00,53.1,38.7,29.32,SE,139,0.0,0.0,58,0.00,,CLR,0.00,VWS V14.01,2013-10-09 07:41:00,
2013-10-09 02:42:00,52.9,38.5,29.32,SE,141,0.0,0.0,58,0.00,,CLR,0.00,VWS V14.01,2013-10-09 07:42:00,
2013-10-09 02:43:00,52.9,38.5,29.32,SE,141,0.0,0.0,58,0.00,,CLR,0.00,VWS V14.01,2013-10-09 07:43:00,
2013-10-09 02:45:00,52.7,38.3,29.32,SE,141,0.0,0.0,58,0.00,,CLR,0.00,VWS V14.01,2013-10-09 07:45:00,
2013-10-09 02:46:00,52.5,38.2,29.32,SE,141,0.0,0.0,58,0.00,,CLR,0.00,VWS V14.01,2013-10-09 07:46:00,
2013-10-09 02:48:00,52.5,38.2,29.32,SE,141,0.0,0.0,58,0.00,,CLR,0.00,VWS V14.01,2013-10-09 07:48:00,
2013-10-09 02:49:00,52.5,39.0,29.32,SE,142,0.0,0.0,60,0.00,,CLR,0.00,VWS V14.01,2013-10-09 07:49:00,
2013-10-09 02:50:00,52.5,39.0,29.32,SE,142,0.0,0.0,60,0.00,,CLR,0.00,VWS V14.01,2013-10-09 07:50:00,
2013-10-09 02:51:00,52.5,39.0,29.32,SSE,149,0.0,0.0,60,0.00,,CLR,0.00,VWS V14.01,2013-10-09 07:51:00,
2013-10-09 02:54:00,52.5,39.0,29.32,SSE,149,0.0,0.0,60,0.00,,CLR,0.00,VWS V14.01,2013-10-09 07:54:00,
2013-10-09 02:55:00,52.5,39.0,29.32,SSE,149,0.0,0.0,60,0.00,,CLR,0.00,VWS V14.01,2013-10-09 07:55:00,
2013-10-09 02:56:00,52.5,39.9,29.32,SSE,149,0.0,0.0,62,0.00,,CLR,0.00,VWS V14.01,2013-10-09 07:56:00,
2013-10-09 02:57:00,52.5,39.9,29.32,SSE,149,0.0,0.0,62,0.00,,CLR,0.00,VWS V14.01,2013-10-09 07:57:00,
2013-10-09 02:58:00,52.5,39.9,29.32,SSE,149,0.0,0.0,62,0.00,,CLR,0.00,VWS V14.01,2013-10-09 07:58:00,
2013-10-09 02:59:00,52.7,40.1,29.32,SSE,150,0.0,0.0,62,0.00,,CLR,0.00,VWS V14.01,2013-10-09 07:59:00,
2013-10-09 03:01:00,52.7,40.9,29.32,SSE,150,0.0,0.0,64,0.00,,CLR,0.00,VWS V14.01,2013-10-09 08:01:00,
2013-10-09 03:03:00,52.7,40.9,29.32,SSE,150,0.0,0.0,64,0.00,,CLR,0.00,VWS V14.01,2013-10-09 08:03:00,
2013-10-09 03:04:00,52.7,40.9,29.32,SSE,150,0.0,0.0,64,0.00,,CLR,0.00,VWS V14.01,2013-10-09 08:04:00,
2013-10-09 03:06:00,52.9,41.0,29.32,SSE,150,0.0,0.0,64,0.00,,CLR,0.00,VWS V14.01,2013-10-09 08:06:00,
2013-10-09 03:07:00,52.9,41.0,29.32,SSE,150,0.0,0.0,64,0.00,,CLR,0.00,VWS V14.01,2013-10-09 08:07:00,
2013-10-09 03:08:00,52.9,41.8,29.32,SE,144,0.0,0.0,66,0.00,,CLR,0.00,VWS V14.01,2013-10-09 08:08:00,
2013-10-09 03:09:00,52.9,41.8,29.32,SE,144,0.0,0.0,66,0.00,,CLR,0.00,VWS V14.01,2013-10-09 08:09:00,
2013-10-09 03:10:00,52.9,41.8,29.32,SSE,160,3.1,3.1,66,0.00,,CLR,0.00,VWS V14.01,2013-10-09 08:10:00,
2013-10-09 03:11:00,52.9,41.8,29.32,SSE,159,3.6,3.6,66,0.00,,CLR,0.00,VWS V14.01,2013-10-09 08:11:00,
2013-10-09 03:12:00,53.1,42.0,29.32,SSE,159,4.0,4.0,66,0.00,,CLR,0.00,VWS V14.01,2013-10-09 08:12:00,
2013-10-09 03:14:00,53.1,42.0,29.32,SSE,156,4.5,4.5,66,0.00,,CLR,0.00,VWS V14.01,2013-10-09 08:14:00,
2013-10-09 03:15:00,53.1,42.0,29.32,SSE,157,2.2,3.1,66,0.00,,CLR,0.00,VWS V14.01,2013-10-09 08:15:00,
2013-10-09 03:16:00,53.1,42.0,29.32,SSE,157,2.7,3.1,66,0.00,,CLR,0.00,VWS V14.01,2013-10-09 08:16:00,
2013-10-09 03:17:00,53.1,42.0,29.32,SSE,157,0.0,0.0,66,0.00,,CLR,0.00,VWS V14.01,2013-10-09 08:17:00,
2013-10-09 03:19:00,53.1,42.0,29.32,SSE,157,0.0,0.0,66,0.00,,CLR,0.00,VWS V14.01,2013-10-09 08:19:00,
2013-10-09 03:22:00,53.1,42.0,29.32,SSE,157,0.0,0.0,66,0.00,,CLR,0.00,VWS V14.01,2013-10-09 08:22:00,
2013-10-09 03:23:00,53.1,42.0,29.32,SSE,157,0.0,0.0,66,0.00,,CLR,0.00,VWS V14.01,2013-10-09 08:23:00,
2013-10-09 03:24:00,53.1,41.2,29.32,SSE,157,0.0,0.0,64,0.00,,CLR,0.00,VWS V14.01,2013-10-09 08:24:00,
2013-10-09 03:27:00,53.1,41.2,29.32,SSE,157,0.0,0.0,64,0.00,,CLR,0.00,VWS V14.01,2013-10-09 08:27:00,
2013-10-09 03:28:00,53.1,41.2,29.32,SSE,157,0.0,0.0,64,0.00,,CLR,0.00,VWS V14.01,2013-10-09 08:28:00,
2013-10-09 03:29:00,53.1,41.2,29.32,SSE,157,0.0,0.0,64,0.00,,CLR,0.00,VWS V14.01,2013-10-09 08:29:00,
2013-10-09 03:32:00,53.1,41.2,29.32,SSE,157,0.0,0.0,64,0.00,,CLR,0.00,VWS V14.01,2013-10-09 08:32:00,
2013-10-09 03:33:00,53.1,41.2,29.32,SSE,157,0.0,0.0,64,0.00,,CLR,0.00,VWS V14.01,2013-10-09 08:33:00,
2013-10-09 03:34:00,53.1,41.2,29.32,SSE,157,0.0,0.0,64,0.00,,CLR,0.00,VWS V14.01,2013-10-09 08:34:00,
2013-10-09 03:35:00,53.1,41.2,29.32,SSE,157,0.0,0.0,64,0.00,,CLR,0.00,VWS V14.01,2013-10-09 08:35:00,
2013-10-09 03:38:00,53.1,41.2,29.32,SSE,157,0.0,0.0,64,0.00,,CLR,0.00,VWS V14.01,2013-10-09 08:38:00,
2013-10-09 03:39:00,53.1,41.2,29.32,SSE,157,0.0,0.0,64,0.00,,CLR,0.00,VWS V14.01,2013-10-09 08:39:00,
2013-10-09 03:40:00,52.9,41.0,29.32,SSE,157,0.0,0.0,64,0.00,,CLR,0.00,VWS V14.01,2013-10-09 08:40:00,
2013-10-09 03:41:00,53.1,41.2,29.32,SSE,157,0.0,0.0,64,0.00,,CLR,0.00,VWS V14.01,2013-10-09 08:41:00,
2013-10-09 03:43:00,52.9,41.0,29.32,SSE,157,0.0,0.0,64,0.00,,CLR,0.00,VWS V14.01,2013-10-09 08:43:00,
2013-10-09 03:45:00,52.7,40.9,29.32,SSE,157,0.0,0.0,64,0.00,,CLR,0.00,VWS V14.01,2013-10-09 08:45:00,
2013-10-09 03:46:00,52.7,40.9,29.32,SSE,157,0.0,0.0,64,0.00,,CLR,0.00,VWS V14.01,2013-10-09 08:46:00,
2013-10-09 03:47:00,52.7,40.9,29.32,SSE,157,0.0,0.0,64,0.00,,CLR,0.00,VWS V14.01,2013-10-09 08:47:00,
2013-10-09 03:49:00,52.7,40.9,29.32,SSE,157,0.0,0.0,64,0.00,,CLR,0.00,VWS V14.01,2013-10-09 08:49:00,
2013-10-09 03:50:00,52.7,40.9,29.32,SSE,157,0.0,0.0,64,0.00,,CLR,0.00,VWS V14.01,2013-10-09 08:50:00,
2013-10-09 03:51:00,52.7,40.9,29.32,SSE,157,2.7,2.7,64,0.00,,CLR,0.00,VWS V14.01,2013-10-09 08:51:00,
2013-10-09 03:52:00,52.9,41.8,29.32,SSE,157,0.0,2.2,66,0.00,,CLR,0.00,VWS V14.01,2013-10-09 08:52:00,
2013-10-09 03:53:00,52.9,41.8,29.32,SSE,157,0.0,2.2,66,0.00,,CLR,0.00,VWS V14.01,2013-10-09 08:53:00,
2013-10-09 03:54:00,52.9,41.8,29.32,SSE,157,0.0,0.0,66,0.00,,CLR,0.00,VWS V14.01,2013-10-09 08:54:00,
2013-10-09 03:56:00,52.9,41.8,29.32,SSE,157,2.7,3.1,66,0.00,,CLR,0.00,VWS V14.01,2013-10-09 08:56:00,
2013-10-09 03:58:00,53.1,42.0,29.32,SSE,157,2.7,3.1,66,0.00,,CLR,0.00,VWS V14.01,2013-10-09 08:58:00,
2013-10-09 03:59:00,53.1,42.0,29.32,SSE,157,2.7,3.1,66,0.00,,CLR,0.00,VWS V14.01,2013-10-09 08:59:00,
2013-10-09 04:00:00,53.1,42.0,29.32,SSE,157,2.2,2.7,66,0.00,,CLR,0.00,VWS V14.01,2013-10-09 09:00:00,
2013-10-09 04:01:00,53.1,42.0,29.32,SSE,157,2.7,2.7,66,0.00,,CLR,0.00,VWS V14.01,2013-10-09 09:01:00,
2013-10-09 04:02:00,52.9,41.0,29.32,SSE,157,2.7,2.7,64,0.00,,CLR,0.00,VWS V14.01,2013-10-09 09:02:00,
2013-10-09 04:03:00,52.9,41.0,29.32,SSE,157,0.0,0.0,64,0.00,,CLR,0.00,VWS V14.01,2013-10-09 09:03:00,
2013-10-09 04:04:00,52.9,41.0,29.32,SSE,157,0.0,0.0,64,0.00,,CLR,0.00,VWS V14.01,2013-10-09 09:04:00,
2013-10-09 04:05:00,52.9,41.0,29.32,SSE,157,0.0,0.0,64,0.00,,CLR,0.00,VWS V14.01,2013-10-09 09:05:00,
2013-10-09 04:06:00,52.7,40.9,29.32,SSE,157,0.0,0.0,64,0.00,,CLR,0.00,VWS V14.01,2013-10-09 09:06:00,
2013-10-09 04:09:00,52.7,40.9,29.32,SSE,157,0.0,0.0,64,0.00,,CLR,0.00,VWS V14.01,2013-10-09 09:09:00,
2013-10-09 04:10:00,52.7,40.9,29.32,SSE,157,0.0,2.7,64,0.00,,CLR,0.00,VWS V14.01,2013-10-09 09:10:00,
2013-10-09 04:11:00,52.7,40.9,29.32,SSE,157,2.7,2.7,64,0.00,,CLR,0.00,VWS V14.01,2013-10-09 09:11:00,
2013-10-09 04:12:00,52.7,40.9,29.32,SSE,157,0.0,2.7,64,0.00,,CLR,0.00,VWS V14.01,2013-10-09 09:12:00,
2013-10-09 04:14:00,52.5,40.7,29.32,SSE,157,2.7,2.7,64,0.00,,CLR,0.00,VWS V14.01,2013-10-09 09:14:00,
2013-10-09 04:15:00,52.5,41.5,29.32,SSE,157,2.7,2.7,66,0.00,,CLR,0.00,VWS V14.01,2013-10-09 09:15:00,
2013-10-09 04:16:00,52.7,41.7,29.32,SSE,157,2.2,2.7,66,0.00,,CLR,0.00,VWS V14.01,2013-10-09 09:16:00,
2013-10-09 04:17:00,52.5,41.5,29.32,SSE,157,0.0,0.0,66,0.00,,CLR,0.00,VWS V14.01,2013-10-09 09:17:00,
2013-10-09 04:18:00,52.5,41.5,29.32,SSE,157,0.0,0.0,66,0.00,,CLR,0.00,VWS V14.01,2013-10-09 09:18:00,
2013-10-09 04:19:00,52.5,41.5,29.32,SSE,157,0.0,0.0,66,0.00,,CLR,0.00,VWS V14.01,2013-10-09 09:19:00,
2013-10-09 04:20:00,52.5,41.5,29.32,SSE,157,0.0,0.0,66,0.00,,CLR,0.00,VWS V14.01,2013-10-09 09:20:00,
2013-10-09 04:22:00,52.5,41.5,29.32,SSE,157,0.0,0.0,66,0.00,,CLR,0.00,VWS V14.01,2013-10-09 09:22:00,
2013-10-09 04:24:00,52.3,40.5,29.32,SSE,157,0.0,0.0,64,0.00,,CLR,0.00,VWS V14.01,2013-10-09 09:24:00,
2013-10-09 04:26:00,52.2,40.4,29.32,SSE,157,0.0,0.0,64,0.00,,CLR,0.00,VWS V14.01,2013-10-09 09:26:00,
2013-10-09 04:27:00,52.2,40.4,29.32,SSE,157,0.0,0.0,64,0.00,,CLR,0.00,VWS V14.01,2013-10-09 09:27:00,
2013-10-09 04:28:00,52.2,40.4,29.32,SSE,157,2.7,2.7,64,0.00,,CLR,0.00,VWS V14.01,2013-10-09 09:28:00,
2013-10-09 04:30:00,52.3,41.3,29.32,SSE,157,0.0,2.2,66,0.00,,CLR,0.00,VWS V14.01,2013-10-09 09:30:00,
2013-10-09 04:32:00,52.3,41.3,29.32,SSE,157,0.0,0.0,66,0.00,,CLR,0.00,VWS V14.01,2013-10-09 09:32:00,
2013-10-09 04:33:00,52.2,41.2,29.32,SSE,157,0.0,0.0,66,0.00,,CLR,0.00,VWS V14.01,2013-10-09 09:33:00,
2013-10-09 04:35:00,52.0,41.0,29.32,SSE,157,0.0,0.0,66,0.00,,CLR,0.00,VWS V14.01,2013-10-09 09:35:00,
2013-10-09 04:37:00,51.8,40.8,29.32,SSE,157,0.0,0.0,66,0.00,,CLR,0.00,VWS V14.01,2013-10-09 09:37:00,
2013-10-09 04:38:00,51.8,40.8,29.35,SSE,157,0.0,0.0,66,0.00,,CLR,0.00,VWS V14.01,2013-10-09 09:38:00,
2013-10-09 04:39:00,51.6,40.7,29.35,SSE,157,0.0,0.0,66,0.00,,CLR,0.00,VWS V14.01,2013-10-09 09:39:00,
2013-10-09 04:41:00,51.6,40.7,29.35,SSE,157,0.0,0.0,66,0.00,,CLR,0.00,VWS V14.01,2013-10-09 09:41:00,
2013-10-09 04:43:00,51.4,40.5,29.35,SSE,157,0.0,0.0,66,0.00,,CLR,0.00,VWS V14.01,2013-10-09 09:43:00,
2013-10-09 04:45:00,51.3,40.3,29.35,SSE,157,0.0,0.0,66,0.00,,CLR,0.00,VWS V14.01,2013-10-09 09:45:00,
2013-10-09 04:46:00,51.3,40.3,29.35,SSE,157,0.0,0.0,66,0.00,,CLR,0.00,VWS V14.01,2013-10-09 09:46:00,
2013-10-09 04:48:00,51.4,41.2,29.35,SSE,157,0.0,0.0,68,0.00,,CLR,0.00,VWS V14.01,2013-10-09 09:48:00,
2013-10-09 04:49:00,51.4,41.2,29.35,SSE,157,0.0,0.0,68,0.00,,CLR,0.00,VWS V14.01,2013-10-09 09:49:00,
2013-10-09 04:50:00,51.4,42.7,29.35,SSE,157,0.0,0.0,72,0.00,,CLR,0.00,VWS V14.01,2013-10-09 09:50:00,
2013-10-09 04:52:00,51.6,42.9,29.35,SSE,157,0.0,0.0,72,0.00,,CLR,0.00,VWS V14.01,2013-10-09 09:52:00,
2013-10-09 04:53:00,51.6,42.9,29.35,SSE,157,0.0,0.0,72,0.00,,CLR,0.00,VWS V14.01,2013-10-09 09:53:00,
2013-10-09 04:54:00,51.6,42.9,29.35,SSE,157,0.0,0.0,72,0.00,,CLR,0.00,VWS V14.01,2013-10-09 09:54:00,
2013-10-09 04:55:00,51.4,42.7,29.35,SSE,157,0.0,0.0,72,0.00,,CLR,0.00,VWS V14.01,2013-10-09 09:55:00,
2013-10-09 04:57:00,51.4,42.7,29.35,SSE,157,0.0,0.0,72,0.00,,CLR,0.00,VWS V14.01,2013-10-09 09:57:00,
2013-10-09 04:58:00,51.4,42.7,29.35,SSE,157,0.0,0.0,72,0.00,,CLR,0.00,VWS V14.01,2013-10-09 09:58:00,
2013-10-09 04:59:00,51.4,42.7,29.35,SSE,157,0.0,0.0,72,0.00,,CLR,0.00,VWS V14.01,2013-10-09 09:59:00,
2013-10-09 05:00:00,51.4,42.7,29.35,SSE,157,0.0,0.0,72,0.00,,CLR,0.00,VWS V14.01,2013-10-09 10:00:00,
2013-10-09 05:01:00,51.4,42.7,29.35,SSE,157,0.0,0.0,72,0.00,,CLR,0.00,VWS V14.01,2013-10-09 10:01:00,
2013-10-09 05:02:00,51.4,42.7,29.35,SSE,157,2.7,2.7,72,0.00,,CLR,0.00,VWS V14.01,2013-10-09 10:02:00,
2013-10-09 05:04:00,51.4,42.7,29.35,SSE,157,0.0,0.0,72,0.00,,CLR,0.00,VWS V14.01,2013-10-09 10:04:00,
2013-10-09 05:05:00,51.4,42.7,29.35,SSE,157,0.0,0.0,72,0.00,,CLR,0.00,VWS V14.01,2013-10-09 10:05:00,
2013-10-09 05:08:00,51.4,42.7,29.35,SSE,157,0.0,0.0,72,0.00,,CLR,0.00,VWS V14.01,2013-10-09 10:08:00,
2013-10-09 05:09:00,51.4,42.7,29.35,SSE,157,0.0,0.0,72,0.00,,CLR,0.00,VWS V14.01,2013-10-09 10:09:00,
2013-10-09 05:10:00,51.4,42.7,29.35,SSE,157,0.0,0.0,72,0.00,,CLR,0.00,VWS V14.01,2013-10-09 10:10:00,
2013-10-09 05:11:00,51.4,42.7,29.35,SSE,157,0.0,0.0,72,0.00,,CLR,0.00,VWS V14.01,2013-10-09 10:11:00,
2013-10-09 05:13:00,51.4,42.7,29.35,SSE,157,0.0,0.0,72,0.00,,CLR,0.00,VWS V14.01,2013-10-09 10:13:00,
2013-10-09 05:14:00,51.4,42.7,29.35,SSE,157,0.0,0.0,72,0.00,,CLR,0.00,VWS V14.01,2013-10-09 10:14:00,
2013-10-09 05:15:00,51.4,42.7,29.35,SSE,157,0.0,0.0,72,0.00,,CLR,0.00,VWS V14.01,2013-10-09 10:15:00,
2013-10-09 05:16:00,51.6,43.6,29.35,SSE,157,0.0,0.0,74,0.00,,CLR,0.00,VWS V14.01,2013-10-09 10:16:00,
2013-10-09 05:17:00,51.6,43.6,29.35,SSE,157,0.0,0.0,74,0.00,,CLR,0.00,VWS V14.01,2013-10-09 10:17:00,
2013-10-09 05:20:00,51.6,43.6,29.35,SSE,157,0.0,0.0,74,0.00,,CLR,0.00,VWS V14.01,2013-10-09 10:20:00,
2013-10-09 05:21:00,51.6,43.6,29.35,SSE,157,0.0,0.0,74,0.00,,CLR,0.00,VWS V14.01,2013-10-09 10:21:00,
2013-10-09 05:22:00,51.6,43.6,29.35,SSE,157,0.0,0.0,74,0.00,,CLR,0.00,VWS V14.01,2013-10-09 10:22:00,
2013-10-09 05:25:00,51.6,43.6,29.35,SSE,157,0.0,0.0,74,0.00,,CLR,0.00,VWS V14.01,2013-10-09 10:25:00,
2013-10-09 05:26:00,51.6,43.6,29.35,SSE,157,0.0,0.0,74,0.00,,CLR,0.00,VWS V14.01,2013-10-09 10:26:00,
2013-10-09 05:27:00,51.6,42.9,29.35,SSE,157,0.0,0.0,72,0.00,,CLR,0.00,VWS V14.01,2013-10-09 10:27:00,
2013-10-09 05:28:00,51.4,42.7,29.35,SSE,157,0.0,0.0,72,0.00,,CLR,0.00,VWS V14.01,2013-10-09 10:28:00,
2013-10-09 05:29:00,51.4,42.7,29.35,SSE,157,0.0,0.0,72,0.00,,CLR,0.00,VWS V14.01,2013-10-09 10:29:00,
2013-10-09 05:31:00,51.4,42.7,29.35,SSE,155,3.1,3.1,72,0.00,,CLR,0.00,VWS V14.01,2013-10-09 10:31:00,
2013-10-09 05:32:00,51.4,43.4,29.35,SSE,155,3.1,3.1,74,0.00,,CLR,0.00,VWS V14.01,2013-10-09 10:32:00,
2013-10-09 05:33:00,51.4,43.4,29.35,SSE,154,3.1,3.1,74,0.00,,CLR,0.00,VWS V14.01,2013-10-09 10:33:00,
2013-10-09 05:34:00,51.4,43.4,29.35,SSE,154,2.2,3.1,74,0.00,,CLR,0.00,VWS V14.01,2013-10-09 10:34:00,
2013-10-09 05:36:00,51.4,43.4,29.35,SSE,154,0.0,0.0,74,0.00,,CLR,0.00,VWS V14.01,2013-10-09 10:36:00,
2013-10-09 05:37:00,51.4,43.4,29.35,SSE,154,0.0,0.0,74,0.00,,CLR,0.00,VWS V14.01,2013-10-09 10:37:00,
2013-10-09 05:39:00,51.4,43.4,29.35,SSE,154,0.0,0.0,74,0.00,,CLR,0.00,VWS V14.01,2013-10-09 10:39:00,
2013-10-09 05:40:00,51.4,43.4,29.35,SSE,154,0.0,0.0,74,0.00,,CLR,0.00,VWS V14.01,2013-10-09 10:40:00,
2013-10-09 05:41:00,51.4,43.4,29.35,SSE,154,2.2,2.2,74,0.00,,CLR,0.00,VWS V14.01,2013-10-09 10:41:00,
2013-10-09 05:42:00,51.4,43.4,29.35,SSE,154,0.0,2.2,74,0.00,,CLR,0.00,VWS V14.01,2013-10-09 10:42:00,
2013-10-09 05:44:00,51.4,43.4,29.35,SSE,154,0.0,0.0,74,0.00,,CLR,0.00,VWS V14.01,2013-10-09 10:44:00,
2013-10-09 05:45:00,51.4,43.4,29.35,SSE,154,2.2,2.2,74,0.00,,CLR,0.00,VWS V14.01,2013-10-09 10:45:00,
2013-10-09 05:46:00,51.4,43.4,29.35,SSE,154,2.7,2.7,74,0.00,,CLR,0.00,VWS V14.01,2013-10-09 10:46:00,
2013-10-09 05:47:00,51.3,43.3,29.35,SSE,154,0.0,2.2,74,0.00,,CLR,0.00,VWS V14.01,2013-10-09 10:47:00,
2013-10-09 05:49:00,51.3,43.3,29.35,SSE,154,0.0,0.0,74,0.00,,CLR,0.00,VWS V14.01,2013-10-09 10:49:00,
2013-10-09 05:51:00,51.3,43.3,29.35,SSE,154,0.0,2.7,74,0.00,,CLR,0.00,VWS V14.01,2013-10-09 10:51:00,
2013-10-09 05:52:00,51.3,43.3,29.35,SSE,154,0.0,0.0,74,0.00,,CLR,0.00,VWS V14.01,2013-10-09 10:52:00,
2013-10-09 05:55:00,51.3,43.3,29.35,SSE,154,0.0,0.0,74,0.00,,CLR,0.00,VWS V14.01,2013-10-09 10:55:00,
2013-10-09 05:56:00,51.3,43.3,29.35,SSE,153,0.0,0.0,74,0.00,,CLR,0.00,VWS V14.01,2013-10-09 10:56:00,
2013-10-09 05:57:00,51.3,43.3,29.35,SSE,153,0.0,0.0,74,0.00,,CLR,0.00,VWS V14.01,2013-10-09 10:57:00,
2013-10-09 06:00:00,51.3,43.3,29.35,SE,127,0.0,0.0,74,0.00,,CLR,0.00,VWS V14.01,2013-10-09 11:00:00,
2013-10-09 06:02:00,51.3,43.3,29.35,SE,127,0.0,0.0,74,0.00,,CLR,0.00,VWS V14.01,2013-10-09 11:02:00,
2013-10-09 06:05:00,51.4,43.4,29.35,SE,127,0.0,0.0,74,0.00,,CLR,0.00,VWS V14.01,2013-10-09 11:05:00,
2013-10-09 06:06:00,51.3,43.3,29.35,East,99,0.0,0.0,74,0.00,,CLR,0.00,VWS V14.01,2013-10-09 11:06:00,
2013-10-09 06:07:00,51.3,43.3,29.35,East,99,0.0,0.0,74,0.00,,CLR,0.00,VWS V14.01,2013-10-09 11:07:00,
2013-10-09 06:08:00,51.3,43.3,29.35,East,100,0.0,0.0,74,0.00,,CLR,0.00,VWS V14.01,2013-10-09 11:08:00,
2013-10-09 06:10:00,51.1,43.1,29.35,East,97,0.0,0.0,74,0.00,,CLR,0.00,VWS V14.01,2013-10-09 11:10:00,
2013-10-09 06:11:00,51.1,43.1,29.35,East,97,0.0,0.0,74,0.00,,CLR,0.00,VWS V14.01,2013-10-09 11:11:00,
2013-10-09 06:12:00,51.1,43.1,29.35,East,97,0.0,0.0,74,0.00,,CLR,0.00,VWS V14.01,2013-10-09 11:12:00,
2013-10-09 06:13:00,51.1,43.1,29.35,East,97,0.0,0.0,74,0.00,,CLR,0.00,VWS V14.01,2013-10-09 11:13:00,
2013-10-09 06:14:00,51.1,43.1,29.35,East,97,0.0,0.0,74,0.00,,CLR,0.00,VWS V14.01,2013-10-09 11:14:00,
2013-10-09 06:16:00,51.1,43.1,29.35,East,97,0.0,0.0,74,0.00,,CLR,0.00,VWS V14.01,2013-10-09 11:16:00,
2013-10-09 06:17:00,51.1,43.1,29.35,East,97,0.0,0.0,74,0.00,,CLR,0.00,VWS V14.01,2013-10-09 11:17:00,
2013-10-09 06:18:00,51.1,43.1,29.35,East,97,0.0,0.0,74,0.00,,CLR,0.00,VWS V14.01,2013-10-09 11:18:00,
2013-10-09 06:19:00,51.1,43.1,29.35,East,97,0.0,0.0,74,0.00,,CLR,0.00,VWS V14.01,2013-10-09 11:19:00,
2013-10-09 06:21:00,50.9,42.9,29.35,East,97,0.0,0.0,74,0.00,,CLR,0.00,VWS V14.01,2013-10-09 11:21:00,
2013-10-09 06:23:00,50.9,42.9,29.35,East,97,0.0,0.0,74,0.00,,CLR,0.00,VWS V14.01,2013-10-09 11:23:00,
2013-10-09 06:24:00,50.9,42.9,29.35,East,97,0.0,0.0,74,0.00,,CLR,0.00,VWS V14.01,2013-10-09 11:24:00,
2013-10-09 06:25:00,50.9,42.9,29.35,East,97,0.0,0.0,74,0.00,,CLR,0.00,VWS V14.01,2013-10-09 11:25:00,
2013-10-09 06:26:00,50.9,42.9,29.35,East,97,0.0,0.0,74,0.00,,CLR,0.00,VWS V14.01,2013-10-09 11:26:00,
2013-10-09 06:27:00,50.9,42.9,29.35,East,97,0.0,0.0,74,0.00,,CLR,0.00,VWS V14.01,2013-10-09 11:27:00,
2013-10-09 06:28:00,50.9,42.9,29.35,East,97,0.0,0.0,74,0.00,,CLR,0.00,VWS V14.01,2013-10-09 11:28:00,
2013-10-09 06:29:00,50.9,42.9,29.35,East,97,0.0,0.0,74,0.00,,CLR,0.00,VWS V14.01,2013-10-09 11:29:00,
2013-10-09 06:31:00,50.7,42.8,29.35,East,97,0.0,2.2,74,0.00,,CLR,0.00,VWS V14.01,2013-10-09 11:31:00,
2013-10-09 06:32:00,50.7,42.8,29.35,East,97,0.0,0.0,74,0.00,,CLR,0.00,VWS V14.01,2013-10-09 11:32:00,
2013-10-09 06:33:00,50.7,42.8,29.35,East,97,0.0,0.0,74,0.00,,CLR,0.00,VWS V14.01,2013-10-09 11:33:00,
2013-10-09 06:36:00,50.5,42.6,29.35,East,98,0.0,0.0,74,0.00,,CLR,0.00,VWS V14.01,2013-10-09 11:36:00,
2013-10-09 06:37:00,50.5,42.6,29.35,East,97,0.0,0.0,74,0.00,,CLR,0.00,VWS V14.01,2013-10-09 11:37:00,
2013-10-09 06:38:00,50.5,42.6,29.38,East,97,0.0,0.0,74,0.00,,CLR,0.00,VWS V14.01,2013-10-09 11:38:00,
2013-10-09 06:39:00,50.5,42.6,29.38,East,97,0.0,0.0,74,0.00,,CLR,0.00,VWS V14.01,2013-10-09 11:39:00,
2013-10-09 06:41:00,50.4,42.4,29.38,East,97,0.0,0.0,74,0.00,,CLR,0.00,VWS V14.01,2013-10-09 11:41:00,
2013-10-09 06:42:00,50.4,42.4,29.38,East,97,0.0,0.0,74,0.00,,CLR,0.00,VWS V14.01,2013-10-09 11:42:00,
2013-10-09 06:43:00,50.2,42.2,29.38,East,97,0.0,0.0,74,0.00,,CLR,0.00,VWS V14.01,2013-10-09 11:43:00,
2013-10-09 06:44:00,50.2,42.2,29.38,East,97,0.0,0.0,74,0.00,,CLR,0.00,VWS V14.01,2013-10-09 11:44:00,
2013-10-09 06:45:00,50.2,42.2,29.38,East,97,0.0,0.0,74,0.00,,CLR,0.00,VWS V14.01,2013-10-09 11:45:00,
2013-10-09 06:47:00,50.2,42.2,29.38,East,97,0.0,0.0,74,0.00,,CLR,0.00,VWS V14.01,2013-10-09 11:47:00,
2013-10-09 06:48:00,50.2,42.2,29.38,East,97,0.0,0.0,74,0.00,,CLR,0.00,VWS V14.01,2013-10-09 11:48:00,
2013-10-09 06:49:00,50.2,42.2,29.38,East,97,0.0,0.0,74,0.00,,CLR,0.00,VWS V14.01,2013-10-09 11:49:00,
2013-10-09 06:50:00,50.2,42.2,29.38,East,97,0.0,0.0,74,0.00,,CLR,0.00,VWS V14.01,2013-10-09 11:50:00,
2013-10-09 06:51:00,50.2,42.2,29.38,East,97,0.0,0.0,74,0.00,,CLR,0.00,VWS V14.01,2013-10-09 11:51:00,
2013-10-09 06:52:00,50.0,42.0,29.38,East,97,0.0,0.0,74,0.00,,CLR,0.00,VWS V14.01,2013-10-09 11:52:00,
2013-10-09 06:53:00,50.0,42.0,29.38,East,97,0.0,0.0,74,0.00,,CLR,0.00,VWS V14.01,2013-10-09 11:53:00,
2013-10-09 06:54:00,50.0,42.0,29.35,East,97,0.0,0.0,74,0.00,,CLR,0.00,VWS V14.01,2013-10-09 11:54:00,
2013-10-09 06:55:00,49.8,41.9,29.35,East,97,0.0,0.0,74,0.00,,CLR,0.00,VWS V14.01,2013-10-09 11:55:00,
2013-10-09 06:56:00,49.6,41.7,29.35,East,97,0.0,0.0,74,0.00,,CLR,0.00,VWS V14.01,2013-10-09 11:56:00,
2013-10-09 06:57:00,49.5,41.5,29.35,East,97,0.0,0.0,74,0.00,,CLR,0.00,VWS V14.01,2013-10-09 11:57:00,
2013-10-09 06:58:00,49.5,41.5,29.35,East,97,0.0,0.0,74,0.00,,CLR,0.00,VWS V14.01,2013-10-09 11:58:00,
2013-10-09 06:59:00,49.5,41.5,29.35,East,97,0.0,0.0,74,0.00,,CLR,0.00,VWS V14.01,2013-10-09 11:59:00,
2013-10-09 07:01:00,49.1,41.2,29.35,East,97,0.0,0.0,74,0.00,,CLR,0.00,VWS V14.01,2013-10-09 12:01:00,
2013-10-09 07:02:00,49.1,41.2,29.35,East,97,0.0,0.0,74,0.00,,CLR,0.00,VWS V14.01,2013-10-09 12:02:00,
2013-10-09 07:03:00,49.1,41.2,29.35,East,97,0.0,0.0,74,0.00,,CLR,0.00,VWS V14.01,2013-10-09 12:03:00,
2013-10-09 07:04:00,49.1,41.9,29.35,East,97,0.0,0.0,76,0.00,,CLR,0.00,VWS V14.01,2013-10-09 12:04:00,
2013-10-09 07:05:00,49.1,41.9,29.35,East,97,0.0,0.0,76,0.00,,CLR,0.00,VWS V14.01,2013-10-09 12:05:00,
2013-10-09 07:06:00,49.3,42.0,29.35,East,97,0.0,0.0,76,0.00,,CLR,0.00,VWS V14.01,2013-10-09 12:06:00,
2013-10-09 07:07:00,49.3,42.0,29.35,East,97,0.0,0.0,76,0.00,,CLR,0.00,VWS V14.01,2013-10-09 12:07:00,
2013-10-09 07:09:00,49.3,42.0,29.38,East,97,0.0,0.0,76,0.00,,CLR,0.00,VWS V14.01,2013-10-09 12:09:00,
2013-10-09 07:10:00,49.5,42.2,29.38,East,97,0.0,0.0,76,0.00,,CLR,0.00,VWS V14.01,2013-10-09 12:10:00,
2013-10-09 07:12:00,49.5,42.2,29.38,East,97,0.0,0.0,76,0.00,,CLR,0.00,VWS V14.01,2013-10-09 12:12:00,
2013-10-09 07:13:00,49.6,42.4,29.38,East,97,0.0,0.0,76,0.00,,CLR,0.00,VWS V14.01,2013-10-09 12:13:00,
2013-10-09 07:14:00,49.8,43.2,29.38,East,97,0.0,0.0,78,0.00,,CLR,0.00,VWS V14.01,2013-10-09 12:14:00,
2013-10-09 07:15:00,49.8,43.2,29.38,East,97,0.0,0.0,78,0.00,,CLR,0.00,VWS V14.01,2013-10-09 12:15:00,
2013-10-09 07:18:00,50.0,42.7,29.38,East,97,0.0,0.0,76,0.00,,CLR,0.00,VWS V14.01,2013-10-09 12:18:00,
2013-10-09 07:19:00,50.0,42.7,29.38,East,97,0.0,0.0,76,0.00,,CLR,0.00,VWS V14.01,2013-10-09 12:19:00,
2013-10-09 07:20:00,50.0,43.4,29.38,East,97,0.0,0.0,78,0.00,,CLR,0.00,VWS V14.01,2013-10-09 12:20:00,
2013-10-09 07:21:00,50.0,43.4,29.38,East,97,0.0,0.0,78,0.00,,CLR,0.00,VWS V14.01,2013-10-09 12:21:00,
2013-10-09 07:22:00,50.2,43.6,29.38,East,97,0.0,0.0,78,0.00,,CLR,0.00,VWS V14.01,2013-10-09 12:22:00,
2013-10-09 07:24:00,50.2,43.6,29.38,ESE,109,0.0,0.0,78,0.00,,CLR,0.00,VWS V14.01,2013-10-09 12:24:00,
2013-10-09 07:25:00,50.2,43.6,29.38,ESE,109,0.0,0.0,78,0.00,,CLR,0.00,VWS V14.01,2013-10-09 12:25:00,
2013-10-09 07:27:00,50.2,43.6,29.38,ESE,109,0.0,0.0,78,0.00,,CLR,0.00,VWS V14.01,2013-10-09 12:27:00,
2013-10-09 07:30:00,50.4,43.8,29.38,ENE,73,0.0,0.0,78,0.00,,CLR,0.00,VWS V14.01,2013-10-09 12:30:00,
2013-10-09 07:31:00,50.4,43.8,29.38,ENE,74,0.0,0.0,78,0.00,,CLR,0.00,VWS V14.01,2013-10-09 12:31:00,
2013-10-09 07:33:00,50.5,44.0,29.38,ENE,74,0.0,0.0,78,0.00,,CLR,0.00,VWS V14.01,2013-10-09 12:33:00,
2013-10-09 07:35:00,50.5,44.0,29.38,ENE,74,0.0,0.0,78,0.00,,CLR,0.00,VWS V14.01,2013-10-09 12:35:00,
2013-10-09 07:36:00,50.5,44.0,29.38,ENE,74,0.0,0.0,78,0.00,,CLR,0.00,VWS V14.01,2013-10-09 12:36:00,
2013-10-09 07:37:00,50.7,44.1,29.38,ENE,74,0.0,0.0,78,0.00,,CLR,0.00,VWS V14.01,2013-10-09 12:37:00,
2013-10-09 07:40:00,50.7,44.1,29.38,ENE,74,0.0,0.0,78,0.00,,CLR,0.00,VWS V14.01,2013-10-09 12:40:00,
2013-10-09 07:41:00,50.9,44.3,29.38,ENE,74,0.0,0.0,78,0.00,,CLR,0.00,VWS V14.01,2013-10-09 12:41:00,
2013-10-09 07:42:00,50.9,44.3,29.38,ENE,74,0.0,0.0,78,0.00,,CLR,0.00,VWS V14.01,2013-10-09 12:42:00,
2013-10-09 07:46:00,50.9,44.3,29.38,ENE,74,0.0,0.0,78,0.00,,CLR,0.00,VWS V14.01,2013-10-09 12:46:00,
2013-10-09 07:47:00,50.9,44.3,29.38,ENE,74,0.0,0.0,78,0.00,,CLR,0.00,VWS V14.01,2013-10-09 12:47:00,
2013-10-09 07:48:00,50.9,44.3,29.38,ENE,74,0.0,0.0,78,0.00,,CLR,0.00,VWS V14.01,2013-10-09 12:48:00,
2013-10-09 07:51:00,50.7,44.1,29.38,ENE,74,0.0,0.0,78,0.00,,CLR,0.00,VWS V14.01,2013-10-09 12:51:00,
2013-10-09 07:52:00,50.7,44.1,29.38,ENE,74,0.0,0.0,78,0.00,,CLR,0.00,VWS V14.01,2013-10-09 12:52:00,
2013-10-09 07:53:00,50.7,44.1,29.38,ENE,74,0.0,0.0,78,0.00,,CLR,0.00,VWS V14.01,2013-10-09 12:53:00,
2013-10-09 07:54:00,50.7,44.1,29.38,ENE,74,0.0,0.0,78,0.00,,CLR,0.00,VWS V14.01,2013-10-09 12:54:00,
2013-10-09 07:57:00,50.9,44.3,29.38,ENE,74,0.0,0.0,78,0.00,,CLR,0.00,VWS V14.01,2013-10-09 12:57:00,
2013-10-09 07:58:00,51.1,44.5,29.38,ENE,74,0.0,0.0,78,0.00,,CLR,0.00,VWS V14.01,2013-10-09 12:58:00,
2013-10-09 07:59:00,51.3,45.3,29.38,East,94,0.0,0.0,80,0.00,,CLR,0.00,VWS V14.01,2013-10-09 12:59:00,
2013-10-09 08:01:00,51.4,45.5,29.38,East,94,0.0,0.0,80,0.00,,CLR,0.00,VWS V14.01,2013-10-09 13:01:00,
2013-10-09 08:03:00,51.6,45.7,29.38,East,94,0.0,0.0,80,0.00,,CLR,0.00,VWS V14.01,2013-10-09 13:03:00,
2013-10-09 08:04:00,51.8,45.8,29.38,East,94,0.0,0.0,80,0.00,,CLR,0.00,VWS V14.01,2013-10-09 13:04:00,
2013-10-09 08:05:00,51.8,45.8,29.38,East,94,0.0,0.0,80,0.00,,CLR,0.00,VWS V14.01,2013-10-09 13:05:00,
2013-10-09 08:06:00,52.0,46.0,29.38,East,96,0.0,0.0,80,0.00,,CLR,0.00,VWS V14.01,2013-10-09 13:06:00,
2013-10-09 08:08:00,52.2,46.2,29.38,East,96,0.0,0.0,80,0.00,,CLR,0.00,VWS V14.01,2013-10-09 13:08:00,
2013-10-09 08:09:00,52.2,46.2,29.38,East,96,0.0,0.0,80,0.00,,CLR,0.00,VWS V14.01,2013-10-09 13:09:00,
2013-10-09 08:11:00,52.3,45.7,29.38,ESE,107,0.0,0.0,78,0.00,,CLR,0.00,VWS V14.01,2013-10-09 13:11:00,
2013-10-09 08:12:00,52.5,45.9,29.38,ESE,107,2.7,3.1,78,0.00,,CLR,0.00,VWS V14.01,2013-10-09 13:12:00,
2013-10-09 08:13:00,52.5,45.9,29.38,ESE,107,0.0,3.1,78,0.00,,CLR,0.00,VWS V14.01,2013-10-09 13:13:00,
2013-10-09 08:15:00,52.9,46.2,29.38,ESE,108,0.0,0.0,78,0.00,,CLR,0.00,VWS V14.01,2013-10-09 13:15:00,
2013-10-09 08:17:00,53.1,46.4,29.38,ESE,108,0.0,0.0,78,0.00,,CLR,0.00,VWS V14.01,2013-10-09 13:17:00,
2013-10-09 08:20:00,53.2,46.6,29.38,ESE,118,2.7,3.1,78,0.00,,CLR,0.00,VWS V14.01,2013-10-09 13:20:00,
2013-10-09 08:21:00,53.2,45.9,29.38,SE,135,2.2,2.2,76,0.00,,CLR,0.00,VWS V14.01,2013-10-09 13:21:00,
2013-10-09 08:22:00,53.4,46.1,29.38,SE,135,0.0,2.7,76,0.00,,CLR,0.00,VWS V14.01,2013-10-09 13:22:00,
2013-10-09 08:23:00,53.4,46.1,29.38,SE,135,3.1,3.1,76,0.00,,CLR,0.00,VWS V14.01,2013-10-09 13:23:00,
2013-10-09 08:25:00,53.6,46.2,29.38,SE,136,0.0,0.0,76,0.00,,CLR,0.00,VWS V14.01,2013-10-09 13:25:00,
2013-10-09 08:27:00,53.8,46.4,29.38,SE,136,3.6,3.6,76,0.00,,CLR,0.00,VWS V14.01,2013-10-09 13:27:00,
2013-10-09 08:28:00,53.8,45.7,29.38,SE,136,0.0,0.0,74,0.00,,CLR,0.00,VWS V14.01,2013-10-09 13:28:00,
2013-10-09 08:29:00,54.0,45.9,29.38,SE,136,2.2,2.7,74,0.00,,CLR,0.00,VWS V14.01,2013-10-09 13:29:00,
2013-10-09 08:30:00,54.0,45.9,29.38,ESE,119,2.7,3.1,74,0.00,,CLR,0.00,VWS V14.01,2013-10-09 13:30:00,
2013-10-09 08:31:00,54.1,46.0,29.38,SSE,157,4.9,4.9,74,0.00,,CLR,0.00,VWS V14.01,2013-10-09 13:31:00,
2013-10-09 08:32:00,54.1,46.0,29.38,SSE,157,2.7,2.7,74,0.00,,CLR,0.00,VWS V14.01,2013-10-09 13:32:00,
2013-10-09 08:33:00,54.1,46.0,29.38,SSE,147,0.0,3.1,74,0.00,,CLR,0.00,VWS V14.01,2013-10-09 13:33:00,
2013-10-09 08:34:00,54.3,46.2,29.38,SSE,157,2.7,3.1,74,0.00,,CLR,0.00,VWS V14.01,2013-10-09 13:34:00,
2013-10-09 08:35:00,54.5,45.7,29.38,SSE,156,0.0,3.1,72,0.00,,CLR,0.00,VWS V14.01,2013-10-09 13:35:00,
2013-10-09 08:38:00,54.7,45.8,29.38,SSE,162,2.2,2.2,72,0.00,,CLR,0.00,VWS V14.01,2013-10-09 13:38:00,
2013-10-09 08:39:00,54.7,45.8,29.38,SSE,162,0.0,2.2,72,0.00,,CLR,0.00,VWS V14.01,2013-10-09 13:39:00,
2013-10-09 08:40:00,54.9,46.0,29.38,SSE,161,0.0,0.0,72,0.00,,CLR,0.00,VWS V14.01,2013-10-09 13:40:00,
2013-10-09 08:41:00,54.9,46.0,29.38,SSE,161,0.0,0.0,72,0.00,,CLR,0.00,VWS V14.01,2013-10-09 13:41:00,
2013-10-09 08:43:00,55.2,46.4,29.38,SSE,161,0.0,0.0,72,0.00,,CLR,0.00,VWS V14.01,2013-10-09 13:43:00,
2013-10-09 08:44:00,55.2,46.4,29.38,SSE,161,0.0,0.0,72,0.00,,CLR,0.00,VWS V14.01,2013-10-09 13:44:00,
2013-10-09 08:45:00,55.2,46.4,29.38,SSE,161,0.0,0.0,72,0.00,,CLR,0.00,VWS V14.01,2013-10-09 13:45:00,
2013-10-09 08:46:00,55.4,45.8,29.38,SSE,161,0.0,0.0,70,0.00,,CLR,0.00,VWS V14.01,2013-10-09 13:46:00,
2013-10-09 08:47:00,55.4,45.8,29.38,SSE,161,0.0,0.0,70,0.00,,CLR,0.00,VWS V14.01,2013-10-09 13:47:00,
2013-10-09 08:48:00,55.6,46.0,29.38,SSE,161,0.0,0.0,70,0.00,,CLR,0.00,VWS V14.01,2013-10-09 13:48:00,
2013-10-09 08:49:00,55.8,46.1,29.38,SSE,161,2.7,3.1,70,0.00,,CLR,0.00,VWS V14.01,2013-10-09 13:49:00,
2013-10-09 08:50:00,55.8,46.1,29.38,SSE,162,0.0,0.0,70,0.00,,CLR,0.00,VWS V14.01,2013-10-09 13:50:00,
2013-10-09 08:51:00,55.8,46.1,29.38,SE,141,4.0,4.0,70,0.00,,CLR,0.00,VWS V14.01,2013-10-09 13:51:00,
2013-10-09 08:53:00,56.1,46.5,29.38,SE,137,2.2,2.2,70,0.00,,CLR,0.00,VWS V14.01,2013-10-09 13:53:00,
2013-10-09 08:55:00,56.1,45.7,29.38,SSE,156,2.7,3.1,68,0.00,,CLR,0.00,VWS V14.01,2013-10-09 13:55:00,
2013-10-09 08:56:00,56.3,45.9,29.38,SSE,156,0.0,0.0,68,0.00,,CLR,0.00,VWS V14.01,2013-10-09 13:56:00,
2013-10-09 08:57:00,56.3,45.9,29.38,SSE,156,0.0,0.0,68,0.00,,CLR,0.00,VWS V14.01,2013-10-09 13:57:00,
2013-10-09 09:00:00,56.8,45.6,29.38,SSE,158,0.0,0.0,66,0.00,,CLR,0.00,VWS V14.01,2013-10-09 14:00:00,
2013-10-09 09:01:00,56.8,44.8,29.38,SSE,158,0.0,0.0,64,0.00,,CLR,0.00,VWS V14.01,2013-10-09 14:01:00,
2013-10-09 09:02:00,57.0,45.0,29.38,SSE,154,2.7,5.8,64,0.00,,CLR,0.00,VWS V14.01,2013-10-09 14:02:00,
2013-10-09 09:03:00,57.2,44.3,29.38,SSE,154,3.1,5.8,62,0.00,,CLR,0.00,VWS V14.01,2013-10-09 14:03:00,
2013-10-09 09:05:00,57.6,42.0,29.38,ESE,122,4.0,4.0,56,0.00,,CLR,0.00,VWS V14.01,2013-10-09 14:05:00,
2013-10-09 09:07:00,57.9,41.4,29.38,SSE,162,2.7,4.0,54,0.00,,CLR,0.00,VWS V14.01,2013-10-09 14:07:00,
2013-10-09 09:08:00,57.9,41.4,29.38,South,175,5.8,5.8,54,0.00,,CLR,0.00,VWS V14.01,2013-10-09 14:08:00,
2013-10-09 09:09:00,58.3,40.8,29.38,SSE,160,4.0,5.4,52,0.00,,CLR,0.00,VWS V14.01,2013-10-09 14:09:00,
2013-10-09 09:10:00,58.5,40.9,29.38,ESE,118,3.6,4.0,52,0.00,,CLR,0.00,VWS V14.01,2013-10-09 14:10:00,
2013-10-09 09:12:00,58.8,40.2,29.38,SSE,164,3.6,5.4,50,0.00,,CLR,0.00,VWS V14.01,2013-10-09 14:12:00,
2013-10-09 09:13:00,58.8,40.2,29.38,SSE,164,3.6,5.4,50,0.00,,CLR,0.00,VWS V14.01,2013-10-09 14:13:00,
2013-10-09 09:14:00,59.0,39.4,29.38,South,169,6.3,6.3,48,0.00,,CLR,0.00,VWS V14.01,2013-10-09 14:14:00,
2013-10-09 09:16:00,59.7,40.0,29.38,ESE,119,2.2,3.1,48,0.00,,CLR,0.00,VWS V14.01,2013-10-09 14:16:00,
2013-10-09 09:18:00,59.7,40.0,29.38,SE,139,4.0,5.8,48,0.00,,CLR,0.00,VWS V14.01,2013-10-09 14:18:00,
2013-10-09 09:20:00,60.1,34.4,29.38,SSE,167,5.4,6.3,38,0.00,,CLR,0.00,VWS V14.01,2013-10-09 14:20:00,
2013-10-09 09:21:00,60.3,34.6,29.38,SSE,154,2.7,6.3,38,0.00,,CLR,0.00,VWS V14.01,2013-10-09 14:21:00,
2013-10-09 09:23:00,60.6,34.9,29.38,SSE,156,5.4,6.3,38,0.00,,CLR,0.00,VWS V14.01,2013-10-09 14:23:00,
2013-10-09 09:24:00,61.0,35.2,29.38,SSE,155,2.7,3.1,38,0.00,,CLR,0.00,VWS V14.01,2013-10-09 14:24:00,
2013-10-09 09:26:00,61.2,35.4,29.38,South,176,3.6,4.9,38,0.00,,CLR,0.00,VWS V14.01,2013-10-09 14:26:00,
2013-10-09 09:27:00,61.3,35.5,29.38,SSE,163,0.0,2.7,38,0.00,,CLR,0.00,VWS V14.01,2013-10-09 14:27:00,
2013-10-09 09:28:00,61.5,35.7,29.38,SSE,160,5.8,5.8,38,0.00,,CLR,0.00,VWS V14.01,2013-10-09 14:28:00,
2013-10-09 09:29:00,61.7,35.9,29.38,South,172,5.4,5.4,38,0.00,,CLR,0.00,VWS V14.01,2013-10-09 14:29:00,
2013-10-09 09:30:00,61.9,36.0,29.38,SE,138,2.2,3.1,38,0.00,,CLR,0.00,VWS V14.01,2013-10-09 14:30:00,
2013-10-09 09:31:00,61.9,36.0,29.38,SSE,168,5.4,5.4,38,0.00,,CLR,0.00,VWS V14.01,2013-10-09 14:31:00,
2013-10-09 09:34:00,62.2,36.3,29.38,SSE,168,3.1,3.6,38,0.00,,CLR,0.00,VWS V14.01,2013-10-09 14:34:00,
2013-10-09 09:35:00,62.4,36.5,29.38,SW,224,4.0,4.0,38,0.00,,CLR,0.00,VWS V14.01,2013-10-09 14:35:00,
2013-10-09 09:36:00,62.6,35.3,29.38,SSE,157,2.7,4.9,36,0.00,,CLR,0.00,VWS V14.01,2013-10-09 14:36:00,
2013-10-09 09:37:00,62.8,35.5,29.38,SSE,155,3.1,4.9,36,0.00,,CLR,0.00,VWS V14.01,2013-10-09 14:37:00,
2013-10-09 09:39:00,63.0,32.7,29.38,South,175,4.0,4.0,32,0.00,,CLR,0.00,VWS V14.01,2013-10-09 14:39:00,
2013-10-09 09:40:00,63.0,32.7,29.38,SSE,163,6.3,6.3,32,0.00,,CLR,0.00,VWS V14.01,2013-10-09 14:40:00,
2013-10-09 09:42:00,63.3,33.0,29.38,SSE,158,3.6,5.4,32,0.00,,CLR,0.00,VWS V14.01,2013-10-09 14:42:00,
2013-10-09 09:44:00,63.7,33.3,29.38,SSE,148,4.0,4.0,32,0.00,,CLR,0.00,VWS V14.01,2013-10-09 14:44:00,
2013-10-09 09:45:00,63.9,33.5,29.38,SSE,165,4.0,5.8,32,0.00,,CLR,0.00,VWS V14.01,2013-10-09 14:45:00,
2013-10-09 09:46:00,64.0,33.6,29.38,ESE,122,2.7,4.9,32,0.00,,CLR,0.00,VWS V14.01,2013-10-09 14:46:00,
2013-10-09 09:47:00,64.2,33.8,29.38,ESE,122,2.7,2.7,32,0.00,,CLR,0.00,VWS V14.01,2013-10-09 14:47:00,
2013-10-09 09:48:00,64.4,32.3,29.38,SE,143,3.6,3.6,30,0.00,,CLR,0.00,VWS V14.01,2013-10-09 14:48:00,
2013-10-09 09:50:00,64.6,32.5,29.38,SE,142,4.9,4.9,30,0.00,,CLR,0.00,VWS V14.01,2013-10-09 14:50:00,
2013-10-09 09:51:00,64.6,32.5,29.38,SE,142,2.7,4.9,30,0.00,,CLR,0.00,VWS V14.01,2013-10-09 14:51:00,
2013-10-09 09:52:00,64.8,32.6,29.38,South,178,3.6,3.6,30,0.00,,CLR,0.00,VWS V14.01,2013-10-09 14:52:00,
2013-10-09 09:53:00,64.8,32.6,29.38,SSE,154,6.3,7.6,30,0.00,,CLR,0.00,VWS V14.01,2013-10-09 14:53:00,
2013-10-09 09:56:00,65.1,32.9,29.38,South,171,5.8,5.8,30,0.00,,CLR,0.00,VWS V14.01,2013-10-09 14:56:00,
2013-10-09 09:57:00,65.3,33.1,29.38,SE,126,4.0,6.3,30,0.00,,CLR,0.00,VWS V14.01,2013-10-09 14:57:00,
2013-10-09 09:58:00,65.3,33.1,29.38,SSE,167,4.5,5.8,30,0.00,,CLR,0.00,VWS V14.01,2013-10-09 14:58:00,
2013-10-09 10:00:00,65.5,33.3,29.38,SE,146,5.4,5.4,30,0.00,,CLR,0.00,VWS V14.01,2013-10-09 15:00:00,
2013-10-09 10:01:00,65.7,33.4,29.38,SE,144,2.7,5.8,30,0.00,,CLR,0.00,VWS V14.01,2013-10-09 15:01:00,
2013-10-09 10:02:00,65.7,33.4,29.38,SE,144,2.7,5.8,30,0.00,,CLR,0.00,VWS V14.01,2013-10-09 15:02:00,
2013-10-09 10:03:00,65.8,33.6,29.38,ESE,113,2.7,2.7,30,0.00,,CLR,0.00,VWS V14.01,2013-10-09 15:03:00,
2013-10-09 10:05:00,66.0,33.7,29.38,SE,143,3.6,3.6,30,0.00,,CLR,0.00,VWS V14.01,2013-10-09 15:05:00,
2013-10-09 10:07:00,66.0,33.7,29.38,South,191,3.6,5.4,30,0.00,,CLR,0.00,VWS V14.01,2013-10-09 15:07:00,
2013-10-09 10:08:00,66.0,33.7,29.38,SE,141,5.8,7.6,30,0.00,,CLR,0.00,VWS V14.01,2013-10-09 15:08:00,
2013-10-09 10:09:00,66.2,33.9,29.38,South,185,4.9,5.8,30,0.00,,CLR,0.00,VWS V14.01,2013-10-09 15:09:00,
2013-10-09 10:10:00,66.2,33.9,29.38,South,179,2.7,2.7,30,0.00,,CLR,0.00,VWS V14.01,2013-10-09 15:10:00,
2013-10-09 10:12:00,66.4,34.0,29.38,SSE,147,3.1,5.8,30,0.00,,CLR,0.00,VWS V14.01,2013-10-09 15:12:00,
2013-10-09 10:13:00,66.4,34.0,29.38,SSE,154,0.0,3.1,30,0.00,,CLR,0.00,VWS V14.01,2013-10-09 15:13:00,
2013-10-09 10:14:00,66.6,34.2,29.38,South,177,5.4,5.8,30,0.00,,CLR,0.00,VWS V14.01,2013-10-09 15:14:00,
2013-10-09 10:16:00,66.7,34.3,29.38,East,98,0.0,0.0,30,0.00,,CLR,0.00,VWS V14.01,2013-10-09 15:16:00,
2013-10-09 10:18:00,66.9,34.5,29.38,SSE,164,2.7,6.3,30,0.00,,CLR,0.00,VWS V14.01,2013-10-09 15:18:00,
2013-10-09 10:19:00,66.9,34.5,29.38,SE,139,2.7,6.3,30,0.00,,CLR,0.00,VWS V14.01,2013-10-09 15:19:00,
2013-10-09 10:20:00,67.1,34.7,29.38,South,183,4.0,4.9,30,0.00,,CLR,0.00,VWS V14.01,2013-10-09 15:20:00,
2013-10-09 10:21:00,67.3,34.8,29.38,SSE,167,6.3,6.7,30,0.00,,CLR,0.00,VWS V14.01,2013-10-09 15:21:00,
2013-10-09 10:23:00,67.3,34.8,29.38,SE,146,0.0,5.4,30,0.00,,CLR,0.00,VWS V14.01,2013-10-09 15:23:00,
2013-10-09 10:24:00,67.3,34.8,29.38,SSE,147,0.0,0.0,30,0.00,,CLR,0.00,VWS V14.01,2013-10-09 15:24:00,
2013-10-09 10:25:00,67.3,34.8,29.38,SSE,166,5.4,6.3,30,0.00,,CLR,0.00,VWS V14.01,2013-10-09 15:25:00,
2013-10-09 10:26:00,67.5,35.0,29.38,SSW,213,5.8,6.3,30,0.00,,CLR,0.00,VWS V14.01,2013-10-09 15:26:00,
2013-10-09 10:28:00,67.5,35.0,29.38,SSE,159,4.0,4.0,30,0.00,,CLR,0.00,VWS V14.01,2013-10-09 15:28:00,
2013-10-09 10:29:00,67.6,35.1,29.38,SSE,166,6.3,6.3,30,0.00,,CLR,0.00,VWS V14.01,2013-10-09 15:29:00,
2013-10-09 10:30:00,67.8,35.3,29.38,SSE,167,4.0,5.4,30,0.00,,CLR,0.00,VWS V14.01,2013-10-09 15:30:00,
2013-10-09 10:31:00,67.8,35.3,29.38,SSE,153,6.3,6.3,30,0.00,,CLR,0.00,VWS V14.01,2013-10-09 15:31:00,
2013-10-09 10:33:00,67.8,35.3,29.38,SSE,160,5.8,5.8,30,0.00,,CLR,0.00,VWS V14.01,2013-10-09 15:33:00,
2013-10-09 10:34:00,68.0,35.4,29.38,East,90,2.7,3.6,30,0.00,,CLR,0.00,VWS V14.01,2013-10-09 15:34:00,
2013-10-09 10:35:00,68.0,35.4,29.38,ESE,119,0.0,3.6,30,0.00,,CLR,0.00,VWS V14.01,2013-10-09 15:35:00,
2013-10-09 10:36:00,68.2,35.6,29.38,South,172,3.1,4.0,30,0.00,,CLR,0.00,VWS V14.01,2013-10-09 15:36:00,
2013-10-09 10:37:00,68.2,35.6,29.38,South,177,6.3,6.3,30,0.00,,CLR,0.00,VWS V14.01,2013-10-09 15:37:00,
2013-10-09 10:38:00,68.4,35.8,29.38,South,182,5.8,5.8,30,0.00,,CLR,0.00,VWS V14.01,2013-10-09 15:38:00,
2013-10-09 10:39:00,68.4,35.8,29.38,South,190,4.9,5.8,30,0.00,,CLR,0.00,VWS V14.01,2013-10-09 15:39:00,
2013-10-09 10:40:00,68.4,35.8,29.38,South,175,4.0,4.9,30,0.00,,CLR,0.00,VWS V14.01,2013-10-09 15:40:00,
2013-10-09 10:41:00,68.5,35.9,29.38,SSE,156,2.7,4.9,30,0.00,,CLR,0.00,VWS V14.01,2013-10-09 15:41:00,
2013-10-09 10:43:00,68.7,36.1,29.38,South,174,5.8,6.3,30,0.00,,CLR,0.00,VWS V14.01,2013-10-09 15:43:00,
2013-10-09 10:44:00,68.7,36.1,29.38,SSW,196,5.8,7.6,30,0.00,,CLR,0.00,VWS V14.01,2013-10-09 15:44:00,
2013-10-09 10:45:00,68.9,36.2,29.38,WSW,251,0.0,3.1,30,0.00,,CLR,0.00,VWS V14.01,2013-10-09 15:45:00,
2013-10-09 10:46:00,68.9,36.2,29.38,WSW,246,0.0,3.1,30,0.00,,CLR,0.00,VWS V14.01,2013-10-09 15:46:00,
2013-10-09 10:49:00,69.1,39.6,29.38,SE,129,3.1,5.8,34,0.00,,CLR,0.00,VWS V14.01,2013-10-09 15:49:00,
2013-10-09 10:50:00,69.3,39.7,29.38,SSE,157,5.4,5.8,34,0.00,,CLR,0.00,VWS V14.01,2013-10-09 15:50:00,
2013-10-09 10:51:00,69.3,39.7,29.38,SSE,167,3.1,5.8,34,0.00,,CLR,0.00,VWS V14.01,2013-10-09 15:51:00,
2013-10-09 10:52:00,69.4,36.7,29.38,SSE,150,0.0,3.1,30,0.00,,CLR,0.00,VWS V14.01,2013-10-09 15:52:00,
2013-10-09 10:54:00,69.4,39.9,29.38,South,178,6.3,6.3,34,0.00,,CLR,0.00,VWS V14.01,2013-10-09 15:54:00,
2013-10-09 10:55:00,69.6,40.0,29.38,SE,140,3.6,6.3,34,0.00,,CLR,0.00,VWS V14.01,2013-10-09 15:55:00,
2013-10-09 10:56:00,69.6,40.0,29.38,SSE,160,2.7,6.3,34,0.00,,CLR,0.00,VWS V14.01,2013-10-09 15:56:00,
2013-10-09 10:57:00,69.6,40.0,29.38,ESE,110,2.7,4.0,34,0.00,,CLR,0.00,VWS V14.01,2013-10-09 15:57:00,
2013-10-09 11:00:00,70.0,40.3,29.38,ESE,106,3.1,3.1,34,0.00,,CLR,0.00,VWS V14.01,2013-10-09 16:00:00,
2013-10-09 11:01:00,70.0,40.3,29.38,SSW,193,3.6,3.6,34,0.00,,CLR,0.00,VWS V14.01,2013-10-09 16:01:00,
2013-10-09 11:02:00,70.0,40.3,29.38,SSE,158,5.4,6.7,34,0.00,,CLR,0.00,VWS V14.01,2013-10-09 16:02:00,
2013-10-09 11:03:00,70.2,40.5,29.38,SE,140,6.3,6.3,34,0.00,,CLR,0.00,VWS V14.01,2013-10-09 16:03:00,
2013-10-09 11:05:00,70.3,40.7,29.38,SSW,194,4.0,4.0,34,0.00,,CLR,0.00,VWS V14.01,2013-10-09 16:05:00,
2013-10-09 11:07:00,70.5,40.8,29.38,SSE,165,4.9,4.9,34,0.00,,CLR,0.00,VWS V14.01,2013-10-09 16:07:00,
2013-10-09 11:08:00,70.5,40.8,29.38,South,183,3.1,4.9,34,0.00,,CLR,0.00,VWS V14.01,2013-10-09 16:08:00,
2013-10-09 11:09:00,70.7,41.0,29.38,South,169,4.0,4.0,34,0.00,,CLR,0.00,VWS V14.01,2013-10-09 16:09:00,
2013-10-09 11:10:00,70.9,41.1,29.38,SSE,159,3.6,4.9,34,0.00,,CLR,0.00,VWS V14.01,2013-10-09 16:10:00,
2013-10-09 11:11:00,70.9,41.1,29.38,East,96,0.0,4.9,34,0.00,,CLR,0.00,VWS V14.01,2013-10-09 16:11:00,
2013-10-09 11:13:00,71.1,41.3,29.38,South,177,3.6,5.8,34,0.00,,CLR,0.00,VWS V14.01,2013-10-09 16:13:00,
2013-10-09 11:14:00,71.1,41.3,29.38,South,177,5.4,6.3,34,0.00,,CLR,0.00,VWS V14.01,2013-10-09 16:14:00,
2013-10-09 11:15:00,71.2,41.5,29.38,SSE,150,4.0,4.0,34,0.00,,CLR,0.00,VWS V14.01,2013-10-09 16:15:00,
2013-10-09 11:16:00,71.2,41.5,29.38,SSE,150,4.0,4.0,34,0.00,,CLR,0.00,VWS V14.01,2013-10-09 16:16:00,
2013-10-09 11:17:00,71.4,41.6,29.38,South,176,4.9,5.4,34,0.00,,CLR,0.00,VWS V14.01,2013-10-09 16:17:00,
2013-10-09 11:18:00,71.4,41.6,29.38,South,176,4.9,5.4,34,0.00,,CLR,0.00,VWS V14.01,2013-10-09 16:18:00,
2013-10-09 11:19:00,71.2,41.5,29.38,SE,141,3.1,6.3,34,0.00,,CLR,0.00,VWS V14.01,2013-10-09 16:19:00,
2013-10-09 11:20:00,71.4,41.6,29.38,East,101,5.4,6.3,34,0.00,,CLR,0.00,VWS V14.01,2013-10-09 16:20:00,
2013-10-09 11:21:00,71.4,41.6,29.38,SE,141,3.1,5.4,34,0.00,,CLR,0.00,VWS V14.01,2013-10-09 16:21:00,
2013-10-09 11:23:00,71.2,41.5,29.38,South,182,2.7,3.1,34,0.00,,CLR,0.00,VWS V14.01,2013-10-09 16:23:00,
2013-10-09 11:25:00,71.4,41.6,29.38,SE,145,4.0,5.4,34,0.00,,CLR,0.00,VWS V14.01,2013-10-09 16:25:00,
2013-10-09 11:26:00,71.4,41.6,29.38,SE,145,4.0,4.5,34,0.00,,CLR,0.00,VWS V14.01,2013-10-09 16:26:00,
2013-10-09 11:28:00,71.4,41.6,29.38,SSE,158,6.3,6.3,34,0.00,,CLR,0.00,VWS V14.01,2013-10-09 16:28:00,
2013-10-09 11:29:00,71.6,40.2,29.38,SSW,201,5.8,6.3,32,0.00,,CLR,0.00,VWS V14.01,2013-10-09 16:29:00,
2013-10-09 11:30:00,71.6,40.2,29.38,South,184,5.8,6.3,32,0.00,,CLR,0.00,VWS V14.01,2013-10-09 16:30:00,
2013-10-09 11:31:00,71.8,40.4,29.38,South,187,6.3,7.6,32,0.00,,CLR,0.00,VWS V14.01,2013-10-09 16:31:00,
2013-10-09 11:34:00,71.8,40.4,29.38,SSW,201,5.4,7.2,32,0.00,,CLR,0.00,VWS V14.01,2013-10-09 16:34:00,
2013-10-09 11:35:00,71.8,40.4,29.38,SSE,149,5.4,6.3,32,0.00,,CLR,0.00,VWS V14.01,2013-10-09 16:35:00,
2013-10-09 11:36:00,71.8,40.4,29.38,ESE,114,5.8,5.8,32,0.00,,CLR,0.00,VWS V14.01,2013-10-09 16:36:00,
2013-10-09 11:37:00,72.0,40.5,29.38,SSE,147,3.1,4.9,32,0.00,,CLR,0.00,VWS V14.01,2013-10-09 16:37:00,
2013-10-09 11:38:00,72.0,40.5,29.38,South,173,3.1,5.4,32,0.00,,CLR,0.00,VWS V14.01,2013-10-09 16:38:00,
2013-10-09 11:39:00,72.0,40.5,29.38,SSE,158,6.3,6.3,32,0.00,,CLR,0.00,VWS V14.01,2013-10-09 16:39:00,
2013-10-09 11:40:00,72.1,40.7,29.38,SSE,168,5.8,5.8,32,0.00,,CLR,0.00,VWS V14.01,2013-10-09 16:40:00,
2013-10-09 11:41:00,72.0,40.5,29.38,South,173,6.3,6.3,32,0.00,,CLR,0.00,VWS V14.01,2013-10-09 16:41:00,
2013-10-09 11:43:00,72.0,40.5,29.38,SSE,167,5.4,6.3,32,0.00,,CLR,0.00,VWS V14.01,2013-10-09 16:43:00,
2013-10-09 11:44:00,72.0,40.5,29.38,SSE,149,3.6,5.4,32,0.00,,CLR,0.00,VWS V14.01,2013-10-09 16:44:00,
2013-10-09 11:46:00,72.0,40.5,29.38,ESE,112,2.7,2.7,32,0.00,,CLR,0.00,VWS V14.01,2013-10-09 16:46:00,
2013-10-09 11:49:00,72.1,40.7,29.38,SSE,158,0.0,0.0,32,0.00,,CLR,0.00,VWS V14.01,2013-10-09 16:49:00,
2013-10-09 11:50:00,72.1,40.7,29.38,SSE,162,4.9,4.9,32,0.00,,CLR,0.00,VWS V14.01,2013-10-09 16:50:00,
2013-10-09 11:51:00,72.3,40.8,29.38,South,171,4.9,7.6,32,0.00,,CLR,0.00,VWS V14.01,2013-10-09 16:51:00,
2013-10-09 11:54:00,72.5,41.0,29.38,ESE,122,0.0,4.0,32,0.00,,CLR,0.00,VWS V14.01,2013-10-09 16:54:00,
2013-10-09 11:55:00,72.5,41.0,29.38,ESE,122,3.1,4.0,32,0.00,,CLR,0.00,VWS V14.01,2013-10-09 16:55:00,
2013-10-09 11:56:00,72.7,41.2,29.38,South,173,4.0,4.0,32,0.00,,CLR,0.00,VWS V14.01,2013-10-09 16:56:00,
2013-10-09 11:58:00,72.9,41.3,29.38,SE,144,0.0,4.0,32,0.00,,CLR,0.00,VWS V14.01,2013-10-09 16:58:00,
2013-10-09 12:00:00,72.9,41.3,29.38,SSE,150,4.9,7.6,32,0.00,,CLR,0.00,VWS V14.01,2013-10-09 17:00:00,
2013-10-09 12:01:00,72.9,41.3,29.38,SSE,165,4.9,4.9,32,0.00,,CLR,0.00,VWS V14.01,2013-10-09 17:01:00,
2013-10-09 12:02:00,72.9,41.3,29.38,SSE,149,3.1,4.9,32,0.00,,CLR,0.00,VWS V14.01,2013-10-09 17:02:00,
2013-10-09 12:04:00,72.9,41.3,29.38,ESE,116,4.9,4.9,32,0.00,,CLR,0.00,VWS V14.01,2013-10-09 17:04:00,
2013-10-09 12:05:00,72.9,41.3,29.38,South,171,6.3,6.3,32,0.00,,CLR,0.00,VWS V14.01,2013-10-09 17:05:00,
2013-10-09 12:07:00,73.0,41.5,29.38,SE,133,6.3,6.3,32,0.00,,CLR,0.00,VWS V14.01,2013-10-09 17:07:00,
2013-10-09 12:08:00,73.0,41.5,29.38,SSE,147,4.0,6.3,32,0.00,,CLR,0.00,VWS V14.01,2013-10-09 17:08:00,
2013-10-09 12:09:00,73.0,41.5,29.35,SE,143,0.0,4.0,32,0.00,,CLR,0.00,VWS V14.01,2013-10-09 17:09:00,
2013-10-09 12:10:00,73.0,41.5,29.35,SSW,197,5.4,5.4,32,0.00,,CLR,0.00,VWS V14.01,2013-10-09 17:10:00,
2013-10-09 12:14:00,73.2,41.6,29.35,ESE,123,5.4,5.4,32,0.00,,CLR,0.00,VWS V14.01,2013-10-09 17:14:00,
2013-10-09 12:15:00,73.4,41.8,29.35,SSE,167,4.0,6.3,32,0.00,,CLR,0.00,VWS V14.01,2013-10-09 17:15:00,
2013-10-09 12:16:00,73.4,41.8,29.35,SSE,151,4.0,8.1,32,0.00,,CLR,0.00,VWS V14.01,2013-10-09 17:16:00,
2013-10-09 12:17:00,73.4,41.8,29.35,South,174,7.6,7.6,32,0.00,,CLR,0.00,VWS V14.01,2013-10-09 17:17:00,
2013-10-09 12:20:00,73.4,41.8,29.35,SSW,200,2.7,5.8,32,0.00,,CLR,0.00,VWS V14.01,2013-10-09 17:20:00,
2013-10-09 12:21:00,73.4,41.8,29.35,SE,142,3.6,3.6,32,0.00,,CLR,0.00,VWS V14.01,2013-10-09 17:21:00,
2013-10-09 12:23:00,73.6,41.9,29.35,South,178,6.3,6.3,32,0.00,,CLR,0.00,VWS V14.01,2013-10-09 17:23:00,
2013-10-09 12:25:00,73.8,42.1,29.35,SSE,152,8.1,9.6,32,0.00,,CLR,0.00,VWS V14.01,2013-10-09 17:25:00,
2013-10-09 12:26:00,73.8,42.1,29.35,SE,137,0.0,7.6,32,0.00,,CLR,0.00,VWS V14.01,2013-10-09 17:26:00,
2013-10-09 12:27:00,73.8,42.1,29.35,SSE,162,5.4,7.6,32,0.00,,CLR,0.00,VWS V14.01,2013-10-09 17:27:00,
2013-10-09 12:28:00,73.8,42.1,29.35,South,172,3.6,6.3,32,0.00,,CLR,0.00,VWS V14.01,2013-10-09 17:28:00,
2013-10-09 12:31:00,73.8,42.1,29.35,SSE,149,4.9,4.9,32,0.00,,CLR,0.00,VWS V14.01,2013-10-09 17:31:00,
2013-10-09 12:32:00,73.8,42.1,29.35,SSE,148,3.1,4.9,32,0.00,,CLR,0.00,VWS V14.01,2013-10-09 17:32:00,
2013-10-09 12:33:00,73.9,42.2,29.35,SE,146,2.7,3.1,32,0.00,,CLR,0.00,VWS V14.01,2013-10-09 17:33:00,
2013-10-09 12:35:00,74.1,42.4,29.35,South,189,4.0,5.8,32,0.00,,CLR,0.00,VWS V14.01,2013-10-09 17:35:00,
2013-10-09 12:37:00,74.1,42.4,29.35,East,85,2.7,4.5,32,0.00,,CLR,0.00,VWS V14.01,2013-10-09 17:37:00,
2013-10-09 12:38:00,74.3,42.6,29.35,SSE,150,3.6,6.3,32,0.00,,CLR,0.00,VWS V14.01,2013-10-09 17:38:00,
2013-10-09 12:40:00,74.3,42.6,29.35,SSE,165,6.7,6.7,32,0.00,,CLR,0.00,VWS V14.01,2013-10-09 17:40:00,
2013-10-09 12:42:00,74.1,42.4,29.35,SE,126,5.4,5.4,32,0.00,,CLR,0.00,VWS V14.01,2013-10-09 17:42:00,
2013-10-09 12:43:00,74.1,42.4,29.35,SE,143,4.0,5.4,32,0.00,,CLR,0.00,VWS V14.01,2013-10-09 17:43:00,
2013-10-09 12:45:00,74.1,42.4,29.35,SE,144,5.4,5.4,32,0.00,,CLR,0.00,VWS V14.01,2013-10-09 17:45:00,
2013-10-09 12:46:00,74.1,42.4,29.35,SE,140,5.8,5.8,32,0.00,,CLR,0.00,VWS V14.01,2013-10-09 17:46:00,
2013-10-09 12:47:00,74.3,42.6,29.35,SE,128,6.3,6.3,32,0.00,,CLR,0.00,VWS V14.01,2013-10-09 17:47:00,
2013-10-09 12:48:00,74.3,42.6,29.35,SSE,151,2.7,6.3,32,0.00,,CLR,0.00,VWS V14.01,2013-10-09 17:48:00,
2013-10-09 12:49:00,74.3,42.6,29.35,SSE,150,4.9,4.9,32,0.00,,CLR,0.00,VWS V14.01,2013-10-09 17:49:00,
2013-10-09 12:51:00,74.5,42.7,29.35,ESE,110,5.4,5.4,32,0.00,,CLR,0.00,VWS V14.01,2013-10-09 17:51:00,
2013-10-09 12:52:00,74.5,42.7,29.35,East,91,4.0,5.4,32,0.00,,CLR,0.00,VWS V14.01,2013-10-09 17:52:00,
2013-10-09 12:53:00,74.7,42.9,29.35,NE,56,2.2,4.0,32,0.00,,CLR,0.00,VWS V14.01,2013-10-09 17:53:00,
2013-10-09 12:54:00,74.7,42.9,29.32,SE,124,3.6,3.6,32,0.00,,CLR,0.00,VWS V14.01,2013-10-09 17:54:00,
2013-10-09 12:55:00,74.7,42.9,29.32,East,81,4.0,4.0,32,0.00,,CLR,0.00,VWS V14.01,2013-10-09 17:55:00,
2013-10-09 12:57:00,74.8,43.0,29.32,ESE,110,2.7,4.0,32,0.00,,CLR,0.00,VWS V14.01,2013-10-09 17:57:00,
2013-10-09 12:58:00,74.8,43.0,29.32,SSE,154,6.3,6.3,32,0.00,,CLR,0.00,VWS V14.01,2013-10-09 17:58:00,
2013-10-09 12:59:00,75.0,43.2,29.32,East,100,2.2,2.7,32,0.00,,CLR,0.00,VWS V14.01,2013-10-09 17:59:00,
2013-10-09 13:00:00,75.0,43.2,29.32,ESE,120,2.2,4.9,32,0.00,,CLR,0.00,VWS V14.01,2013-10-09 18:00:00,
2013-10-09 13:03:00,75.2,41.7,29.32,ESE,109,0.0,3.1,30,0.00,,CLR,0.00,VWS V14.01,2013-10-09 18:03:00,
2013-10-09 13:04:00,75.2,41.7,29.32,SSW,211,5.8,5.8,30,0.00,,CLR,0.00,VWS V14.01,2013-10-09 18:04:00,
2013-10-09 13:05:00,75.2,41.7,29.32,SW,224,6.3,6.3,30,0.00,,CLR,0.00,VWS V14.01,2013-10-09 18:05:00,
2013-10-09 13:06:00,75.2,41.7,29.32,SW,226,6.3,6.3,30,0.00,,CLR,0.00,VWS V14.01,2013-10-09 18:06:00,
2013-10-09 13:07:00,75.4,41.8,29.32,SSE,154,5.4,7.6,30,0.00,,CLR,0.00,VWS V14.01,2013-10-09 18:07:00,
2013-10-09 13:09:00,75.4,41.8,29.32,South,187,5.4,5.4,30,0.00,,CLR,0.00,VWS V14.01,2013-10-09 18:09:00,
2013-10-09 13:10:00,75.4,41.8,29.32,SSW,209,4.0,4.9,30,0.00,,CLR,0.00,VWS V14.01,2013-10-09 18:10:00,
2013-10-09 13:11:00,75.4,41.8,29.32,South,183,5.4,5.4,30,0.00,,CLR,0.00,VWS V14.01,2013-10-09 18:11:00,
2013-10-09 13:12:00,75.4,41.8,29.32,East,85,3.1,5.4,30,0.00,,CLR,0.00,VWS V14.01,2013-10-09 18:12:00,
2013-10-09 13:15:00,75.7,42.1,29.32,East,94,3.1,3.6,30,0.00,,CLR,0.00,VWS V14.01,2013-10-09 18:15:00,
2013-10-09 13:16:00,75.9,42.3,29.32,East,93,0.0,0.0,30,0.00,,CLR,0.00,VWS V14.01,2013-10-09 18:16:00,
2013-10-09 13:17:00,75.9,42.3,29.32,East,100,0.0,2.2,30,0.00,,CLR,0.00,VWS V14.01,2013-10-09 18:17:00,
2013-10-09 13:20:00,76.1,42.5,29.32,SSE,148,4.0,4.5,30,0.00,,CLR,0.00,VWS V14.01,2013-10-09 18:20:00,
2013-10-09 13:21:00,76.3,42.6,29.32,East,98,4.0,4.5,30,0.00,,CLR,0.00,VWS V14.01,2013-10-09 18:21:00,
2013-10-09 13:22:00,76.3,42.6,29.32,East,98,4.0,4.0,30,0.00,,CLR,0.00,VWS V14.01,2013-10-09 18:22:00,
2013-10-09 13:24:00,76.3,42.6,29.32,ESE,105,2.7,6.3,30,0.00,,CLR,0.00,VWS V14.01,2013-10-09 18:24:00,
2013-10-09 13:25:00,76.3,42.6,29.32,SE,145,6.7,7.2,30,0.00,,CLR,0.00,VWS V14.01,2013-10-09 18:25:00,
2013-10-09 13:26:00,76.3,42.6,29.32,SSE,154,3.1,6.3,30,0.00,,CLR,0.00,VWS V14.01,2013-10-09 18:26:00,
2013-10-09 13:29:00,76.1,42.5,29.32,SE,133,0.0,0.0,30,0.00,,CLR,0.00,VWS V14.01,2013-10-09 18:29:00,
2013-10-09 13:30:00,76.1,42.5,29.32,ESE,109,0.0,0.0,30,0.00,,CLR,0.00,VWS V14.01,2013-10-09 18:30:00,
2013-10-09 13:31:00,76.3,42.6,29.32,East,88,0.0,4.0,30,0.00,,CLR,0.00,VWS V14.01,2013-10-09 18:31:00,
2013-10-09 13:32:00,76.3,42.6,29.32,SE,137,3.1,3.1,30,0.00,,CLR,0.00,VWS V14.01,2013-10-09 18:32:00,
2013-10-09 13:34:00,76.6,42.9,29.32,SE,140,4.0,4.0,30,0.00,,CLR,0.00,VWS V14.01,2013-10-09 18:34:00,
2013-10-09 13:37:00,76.6,42.9,29.32,South,190,5.4,8.7,30,0.00,,CLR,0.00,VWS V14.01,2013-10-09 18:37:00,
2013-10-09 13:39:00,76.5,42.8,29.29,SSE,162,5.8,8.7,30,0.00,,CLR,0.00,VWS V14.01,2013-10-09 18:39:00,
2013-10-09 13:40:00,76.3,42.6,29.29,SSW,192,11.0,11.0,30,0.00,,CLR,0.00,VWS V14.01,2013-10-09 18:40:00,
2013-10-09 13:42:00,76.3,42.6,29.29,SSW,193,5.4,6.3,30,0.00,,CLR,0.00,VWS V14.01,2013-10-09 18:42:00,
2013-10-09 13:43:00,76.5,42.8,29.29,SSW,207,5.4,8.3,30,0.00,,CLR,0.00,VWS V14.01,2013-10-09 18:43:00,
2013-10-09 13:44:00,76.3,42.6,29.29,SSE,159,5.4,8.3,30,0.00,,CLR,0.00,VWS V14.01,2013-10-09 18:44:00,
2013-10-09 13:45:00,76.5,42.8,29.29,SSE,154,5.8,8.1,30,0.00,,CLR,0.00,VWS V14.01,2013-10-09 18:45:00,
2013-10-09 13:47:00,76.5,42.8,29.29,SE,143,3.1,5.8,30,0.00,,CLR,0.00,VWS V14.01,2013-10-09 18:47:00,
2013-10-09 13:48:00,76.5,42.8,29.29,NE,46,4.0,4.0,30,0.00,,CLR,0.00,VWS V14.01,2013-10-09 18:48:00,
2013-10-09 13:49:00,76.6,42.9,29.29,ENE,69,0.0,4.0,30,0.00,,CLR,0.00,VWS V14.01,2013-10-09 18:49:00,
2013-10-09 13:50:00,76.5,42.8,29.29,ESE,111,2.7,3.1,30,0.00,,CLR,0.00,VWS V14.01,2013-10-09 18:50:00,
2013-10-09 13:51:00,76.5,42.8,29.29,SSW,201,5.8,5.8,30,0.00,,CLR,0.00,VWS V14.01,2013-10-09 18:51:00,
2013-10-09 13:52:00,76.5,42.8,29.29,SSW,208,5.8,8.7,30,0.00,,CLR,0.00,VWS V14.01,2013-10-09 18:52:00,
2013-10-09 13:53:00,76.6,42.9,29.29,SSW,196,5.8,8.3,30,0.00,,CLR,0.00,VWS V14.01,2013-10-09 18:53:00,
2013-10-09 13:55:00,76.6,42.9,29.29,SSE,153,5.8,6.7,30,0.00,,CLR,0.00,VWS V14.01,2013-10-09 18:55:00,
2013-10-09 13:56:00,76.6,42.9,29.29,SE,146,10.1,10.1,30,0.00,,CLR,0.00,VWS V14.01,2013-10-09 18:56:00,
2013-10-09 13:57:00,76.6,42.9,29.29,South,176,4.0,4.0,30,0.00,,CLR,0.00,VWS V14.01,2013-10-09 18:57:00,
2013-10-09 13:59:00,76.6,42.9,29.29,SE,146,5.4,8.7,30,0.00,,CLR,0.00,VWS V14.01,2013-10-09 18:59:00,
2013-10-09 14:00:00,76.6,42.9,29.29,SE,143,3.1,3.6,30,0.00,,CLR,0.00,VWS V14.01,2013-10-09 19:00:00,
2013-10-09 14:02:00,76.8,43.1,29.29,SSE,166,5.8,5.8,30,0.00,,CLR,0.00,VWS V14.01,2013-10-09 19:02:00,
2013-10-09 14:03:00,77.0,43.2,29.29,South,189,4.0,5.8,30,0.00,,CLR,0.00,VWS V14.01,2013-10-09 19:03:00,
2013-10-09 14:04:00,77.0,43.2,29.29,SW,225,2.7,5.8,30,0.00,,CLR,0.00,VWS V14.01,2013-10-09 19:04:00,
2013-10-09 14:05:00,77.0,43.2,29.29,SSW,202,6.3,6.3,30,0.00,,CLR,0.00,VWS V14.01,2013-10-09 19:05:00,
2013-10-09 14:07:00,77.0,43.2,29.29,SSW,202,5.8,8.7,30,0.00,,CLR,0.00,VWS V14.01,2013-10-09 19:07:00,
2013-10-09 14:08:00,77.0,43.2,29.26,SSW,193,6.3,6.3,30,0.00,,CLR,0.00,VWS V14.01,2013-10-09 19:08:00,
2013-10-09 14:09:00,77.0,43.2,29.26,SSE,151,5.4,6.3,30,0.00,,CLR,0.00,VWS V14.01,2013-10-09 19:09:00,
2013-10-09 14:10:00,77.0,43.2,29.26,SSW,204,5.8,5.8,30,0.00,,CLR,0.00,VWS V14.01,2013-10-09 19:10:00,
2013-10-09 14:11:00,77.2,43.4,29.26,South,174,7.6,7.6,30,0.00,,CLR,0.00,VWS V14.01,2013-10-09 19:11:00,
2013-10-09 14:14:00,77.2,43.4,29.26,South,172,5.8,7.2,30,0.00,,CLR,0.00,VWS V14.01,2013-10-09 19:14:00,
2013-10-09 14:15:00,77.2,43.4,29.26,SW,217,3.6,4.9,30,0.00,,CLR,0.00,VWS V14.01,2013-10-09 19:15:00,
2013-10-09 14:17:00,77.2,43.4,29.26,WSW,241,0.0,0.0,30,0.00,,CLR,0.00,VWS V14.01,2013-10-09 19:17:00,
2013-10-09 14:19:00,77.0,43.2,29.26,SW,230,3.1,3.1,30,0.00,,CLR,0.00,VWS V14.01,2013-10-09 19:19:00,
2013-10-09 14:20:00,77.0,43.2,29.26,SE,136,5.8,6.3,30,0.00,,CLR,0.00,VWS V14.01,2013-10-09 19:20:00,
2013-10-09 14:22:00,77.4,43.5,29.26,SSW,196,5.8,8.3,30,0.00,,CLR,0.00,VWS V14.01,2013-10-09 19:22:00,
2013-10-09 14:23:00,77.4,43.5,29.26,SSE,168,3.6,6.3,30,0.00,,CLR,0.00,VWS V14.01,2013-10-09 19:23:00,
2013-10-09 14:24:00,77.5,43.7,29.29,SSE,147,0.0,0.0,30,0.00,,CLR,0.00,VWS V14.01,2013-10-09 19:24:00,
2013-10-09 14:25:00,77.7,43.8,29.29,SE,146,0.0,2.7,30,0.00,,CLR,0.00,VWS V14.01,2013-10-09 19:25:00,
2013-10-09 14:27:00,77.7,43.8,29.29,South,191,4.9,5.4,30,0.00,,CLR,0.00,VWS V14.01,2013-10-09 19:27:00,
2013-10-09 14:28:00,77.7,43.8,29.29,SSW,202,4.0,5.4,30,0.00,,CLR,0.00,VWS V14.01,2013-10-09 19:28:00,
2013-10-09 14:29:00,77.9,44.0,29.29,SSW,213,5.8,7.6,30,0.00,,CLR,0.00,VWS V14.01,2013-10-09 19:29:00,
2013-10-09 14:31:00,77.9,44.0,29.29,SSW,194,5.4,5.4,30,0.00,,CLR,0.00,VWS V14.01,2013-10-09 19:31:00,
2013-10-09 14:33:00,77.9,44.0,29.29,WSW,248,8.3,8.3,30,0.00,,CLR,0.00,VWS V14.01,2013-10-09 19:33:00,
2013-10-09 14:34:00,77.9,44.0,29.29,SSE,159,4.9,10.5,30,0.00,,CLR,0.00,VWS V14.01,2013-10-09 19:34:00,
2013-10-09 14:35:00,77.9,44.0,29.29,South,174,3.1,5.4,30,0.00,,CLR,0.00,VWS V14.01,2013-10-09 19:35:00,
2013-10-09 14:37:00,77.9,44.0,29.29,SSE,151,5.8,8.3,30,0.00,,CLR,0.00,VWS V14.01,2013-10-09 19:37:00,
2013-10-09 14:38:00,77.9,44.0,29.29,SSE,159,4.5,8.3,30,0.00,,CLR,0.00,VWS V14.01,2013-10-09 19:38:00,
2013-10-09 14:39:00,77.9,44.0,29.29,SE,144,4.0,4.9,30,0.00,,CLR,0.00,VWS V14.01,2013-10-09 19:39:00,
2013-10-09 14:40:00,77.7,43.8,29.29,SE,146,5.8,7.2,30,0.00,,CLR,0.00,VWS V14.01,2013-10-09 19:40:00,
2013-10-09 14:41:00,77.7,43.8,29.29,SSE,149,4.0,5.8,30,0.00,,CLR,0.00,VWS V14.01,2013-10-09 19:41:00,
2013-10-09 14:42:00,77.7,43.8,29.29,SSE,166,6.3,6.3,30,0.00,,CLR,0.00,VWS V14.01,2013-10-09 19:42:00,
2013-10-09 14:43:00,77.7,43.8,29.29,SSE,149,5.4,5.4,30,0.00,,CLR,0.00,VWS V14.01,2013-10-09 19:43:00,
2013-10-09 14:44:00,77.7,43.8,29.29,SSE,157,2.7,2.7,30,0.00,,CLR,0.00,VWS V14.01,2013-10-09 19:44:00,
2013-10-09 14:46:00,77.7,43.8,29.29,South,181,4.0,4.0,30,0.00,,CLR,0.00,VWS V14.01,2013-10-09 19:46:00,
2013-10-09 14:47:00,77.7,43.8,29.29,South,183,3.6,4.9,30,0.00,,CLR,0.00,VWS V14.01,2013-10-09 19:47:00,
2013-10-09 14:48:00,77.9,44.0,29.29,South,176,7.6,7.6,30,0.00,,CLR,0.00,VWS V14.01,2013-10-09 19:48:00,
2013-10-09 14:49:00,77.9,44.0,29.29,SSE,164,5.4,5.4,30,0.00,,CLR,0.00,VWS V14.01,2013-10-09 19:49:00,
2013-10-09 14:50:00,77.9,44.0,29.29,SSE,152,3.6,5.4,30,0.00,,CLR,0.00,VWS V14.01,2013-10-09 19:50:00,
2013-10-09 14:51:00,77.9,44.0,29.29,South,178,6.3,6.3,30,0.00,,CLR,0.00,VWS V14.01,2013-10-09 19:51:00,
2013-10-09 14:52:00,77.9,44.0,29.29,SE,145,5.8,6.3,30,0.00,,CLR,0.00,VWS V14.01,2013-10-09 19:52:00,
2013-10-09 14:53:00,77.9,44.0,29.29,SSE,148,2.7,8.1,30,0.00,,CLR,0.00,VWS V14.01,2013-10-09 19:53:00,
2013-10-09 14:55:00,78.1,44.2,29.26,SSE,164,4.0,4.0,30,0.00,,CLR,0.00,VWS V14.01,2013-10-09 19:55:00,
2013-10-09 14:56:00,78.1,44.2,29.26,SW,225,0.0,6.3,30,0.00,,CLR,0.00,VWS V14.01,2013-10-09 19:56:00,
2013-10-09 14:58:00,78.1,44.2,29.26,South,175,2.7,3.6,30,0.00,,CLR,0.00,VWS V14.01,2013-10-09 19:58:00,
2013-10-09 14:59:00,78.1,44.2,29.26,South,189,5.4,5.4,30,0.00,,CLR,0.00,VWS V14.01,2013-10-09 19:59:00,
2013-10-09 15:00:00,78.1,44.2,29.26,SSW,207,4.0,4.0,30,0.00,,CLR,0.00,VWS V14.01,2013-10-09 20:00:00,
2013-10-09 15:01:00,78.1,44.2,29.26,SE,128,2.7,4.0,30,0.00,,CLR,0.00,VWS V14.01,2013-10-09 20:01:00,
2013-10-09 15:02:00,78.1,44.2,29.26,SE,146,3.6,3.6,30,0.00,,CLR,0.00,VWS V14.01,2013-10-09 20:02:00,
2013-10-09 15:04:00,78.3,44.3,29.26,East,89,4.0,8.1,30,0.00,,CLR,0.00,VWS V14.01,2013-10-09 20:04:00,
2013-10-09 15:05:00,78.4,44.5,29.26,SSW,205,5.4,5.4,30,0.00,,CLR,0.00,VWS V14.01,2013-10-09 20:05:00,
2013-10-09 15:06:00,78.4,44.5,29.26,South,172,7.6,8.7,30,0.00,,CLR,0.00,VWS V14.01,2013-10-09 20:06:00,
2013-10-09 15:08:00,78.3,44.3,29.26,ESE,116,5.8,8.1,30,0.00,,CLR,0.00,VWS V14.01,2013-10-09 20:08:00,
2013-10-09 15:10:00,78.3,44.3,29.26,South,174,5.4,5.4,30,0.00,,CLR,0.00,VWS V14.01,2013-10-09 20:10:00,
2013-10-09 15:11:00,78.3,44.3,29.26,South,170,5.8,5.8,30,0.00,,CLR,0.00,VWS V14.01,2013-10-09 20:11:00,
2013-10-09 15:12:00,78.4,44.5,29.26,SSE,150,4.9,5.8,30,0.00,,CLR,0.00,VWS V14.01,2013-10-09 20:12:00,
2013-10-09 15:13:00,78.4,44.5,29.26,South,169,3.1,3.1,30,0.00,,CLR,0.00,VWS V14.01,2013-10-09 20:13:00,
2013-10-09 15:14:00,78.4,44.5,29.26,SSE,155,5.4,6.3,30,0.00,,CLR,0.00,VWS V14.01,2013-10-09 20:14:00,
2013-10-09 15:16:00,78.4,44.5,29.26,ESE,116,3.1,4.0,30,0.00,,CLR,0.00,VWS V14.01,2013-10-09 20:16:00,
2013-10-09 15:17:00,78.4,44.5,29.26,SE,130,5.8,5.8,30,0.00,,CLR,0.00,VWS V14.01,2013-10-09 20:17:00,
2013-10-09 15:19:00,78.4,44.5,29.26,SSE,151,0.0,0.0,30,0.00,,CLR,0.00,VWS V14.01,2013-10-09 20:19:00,
2013-10-09 15:21:00,78.6,44.6,29.26,East,92,0.0,4.5,30,0.00,,CLR,0.00,VWS V14.01,2013-10-09 20:21:00,
2013-10-09 15:22:00,78.8,44.8,29.26,East,90,3.6,3.6,30,0.00,,CLR,0.00,VWS V14.01,2013-10-09 20:22:00,
2013-10-09 15:23:00,78.8,44.8,29.26,East,88,3.6,3.6,30,0.00,,CLR,0.00,VWS V14.01,2013-10-09 20:23:00,
2013-10-09 15:24:00,78.8,44.8,29.26,SE,130,4.9,4.9,30,0.00,,CLR,0.00,VWS V14.01,2013-10-09 20:24:00,
2013-10-09 15:26:00,78.8,44.8,29.26,SSE,164,4.0,6.3,30,0.00,,CLR,0.00,VWS V14.01,2013-10-09 20:26:00,
2013-10-09 15:27:00,78.8,44.8,29.26,SSE,157,6.3,6.3,30,0.00,,CLR,0.00,VWS V14.01,2013-10-09 20:27:00,
2013-10-09 15:28:00,78.8,44.8,29.26,SE,133,4.0,6.3,30,0.00,,CLR,0.00,VWS V14.01,2013-10-09 20:28:00,
2013-10-09 15:29:00,78.8,44.8,29.26,SSE,159,7.6,7.6,30,0.00,,CLR,0.00,VWS V14.01,2013-10-09 20:29:00,
2013-10-09 15:30:00,78.8,44.8,29.26,SSE,160,2.2,7.6,30,0.00,,CLR,0.00,VWS V14.01,2013-10-09 20:30:00,
2013-10-09 15:31:00,78.8,44.8,29.26,SE,136,6.3,6.3,30,0.00,,CLR,0.00,VWS V14.01,2013-10-09 20:31:00,
2013-10-09 15:33:00,78.8,44.8,29.26,SE,146,8.1,8.1,30,0.00,,CLR,0.00,VWS V14.01,2013-10-09 20:33:00,
2013-10-09 15:34:00,78.6,44.6,29.26,SSE,165,5.8,7.6,30,0.00,,CLR,0.00,VWS V14.01,2013-10-09 20:34:00,
2013-10-09 15:35:00,78.6,44.6,29.26,SSW,193,7.2,7.2,30,0.00,,CLR,0.00,VWS V14.01,2013-10-09 20:35:00,
2013-10-09 15:36:00,78.6,44.6,29.26,SSE,154,2.7,7.2,30,0.00,,CLR,0.00,VWS V14.01,2013-10-09 20:36:00,
2013-10-09 15:37:00,78.6,44.6,29.26,SSW,204,4.0,4.0,30,0.00,,CLR,0.00,VWS V14.01,2013-10-09 20:37:00,
2013-10-09 15:39:00,78.6,44.6,29.26,SSE,167,5.8,6.3,30,0.00,,CLR,0.00,VWS V14.01,2013-10-09 20:39:00,
2013-10-09 15:40:00,78.6,44.6,29.26,SE,125,4.0,4.0,30,0.00,,CLR,0.00,VWS V14.01,2013-10-09 20:40:00,
2013-10-09 15:41:00,78.6,44.6,29.26,SE,127,3.1,4.0,30,0.00,,CLR,0.00,VWS V14.01,2013-10-09 20:41:00,
2013-10-09 15:42:00,78.6,44.6,29.26,SE,130,4.0,5.8,30,0.00,,CLR,0.00,VWS V14.01,2013-10-09 20:42:00,
2013-10-09 15:44:00,78.8,44.8,29.26,SSE,160,8.7,8.7,30,0.00,,CLR,0.00,VWS V14.01,2013-10-09 20:44:00,
2013-10-09 15:46:00,78.6,44.6,29.26,South,172,2.7,3.6,30,0.00,,CLR,0.00,VWS V14.01,2013-10-09 20:46:00,
2013-10-09 15:47:00,78.6,44.6,29.26,SSE,163,5.8,7.6,30,0.00,,CLR,0.00,VWS V14.01,2013-10-09 20:47:00,
2013-10-09 15:48:00,78.6,44.6,29.26,SSE,163,5.4,5.4,30,0.00,,CLR,0.00,VWS V14.01,2013-10-09 20:48:00,
2013-10-09 15:49:00,78.6,44.6,29.26,ESE,118,4.0,4.9,30,0.00,,CLR,0.00,VWS V14.01,2013-10-09 20:49:00,
2013-10-09 15:51:00,78.6,44.6,29.26,SSE,151,5.8,6.3,30,0.00,,CLR,0.00,VWS V14.01,2013-10-09 20:51:00,
2013-10-09 15:52:00,78.6,44.6,29.26,South,183,3.6,6.3,30,0.00,,CLR,0.00,VWS V14.01,2013-10-09 20:52:00,
2013-10-09 15:53:00,78.8,44.8,29.26,South,176,2.7,3.6,30,0.00,,CLR,0.00,VWS V14.01,2013-10-09 20:53:00,
2013-10-09 15:54:00,78.8,44.8,29.26,South,177,3.6,5.4,30,0.00,,CLR,0.00,VWS V14.01,2013-10-09 20:54:00,
2013-10-09 15:55:00,78.8,44.8,29.26,SSE,150,3.1,5.8,30,0.00,,CLR,0.00,VWS V14.01,2013-10-09 20:55:00,
2013-10-09 15:57:00,78.8,44.8,29.26,East,95,3.6,5.4,30,0.00,,CLR,0.00,VWS V14.01,2013-10-09 20:57:00,
2013-10-09 15:59:00,78.8,44.8,29.26,ESE,110,3.6,5.4,30,0.00,,CLR,0.00,VWS V14.01,2013-10-09 20:59:00,
2013-10-09 16:00:00,78.6,44.6,29.26,SSE,152,6.3,6.3,30,0.00,,CLR,0.00,VWS V14.01,2013-10-09 21:00:00,
2013-10-09 16:02:00,78.6,44.6,29.26,SSE,152,6.7,7.6,30,0.00,,CLR,0.00,VWS V14.01,2013-10-09 21:02:00,
2013-10-09 16:03:00,78.6,44.6,29.26,SE,134,4.9,7.6,30,0.00,,CLR,0.00,VWS V14.01,2013-10-09 21:03:00,
2013-10-09 16:04:00,78.6,44.6,29.26,SE,136,5.8,5.8,30,0.00,,CLR,0.00,VWS V14.01,2013-10-09 21:04:00,
2013-10-09 16:05:00,78.6,44.6,29.26,South,169,7.6,7.6,30,0.00,,CLR,0.00,VWS V14.01,2013-10-09 21:05:00,
2013-10-09 16:06:00,78.6,44.6,29.26,ESE,106,6.3,7.6,30,0.00,,CLR,0.00,VWS V14.01,2013-10-09 21:06:00,
2013-10-09 16:07:00,78.4,44.5,29.26,SSE,168,4.9,7.6,30,0.00,,CLR,0.00,VWS V14.01,2013-10-09 21:07:00,
2013-10-09 16:08:00,78.4,44.5,29.26,South,177,8.1,8.1,30,0.00,,CLR,0.00,VWS V14.01,2013-10-09 21:08:00,
2013-10-09 16:10:00,78.3,44.3,29.26,SSE,147,5.8,5.8,30,0.00,,CLR,0.00,VWS V14.01,2013-10-09 21:10:00,
2013-10-09 16:12:00,78.3,44.3,29.26,SSE,166,8.1,8.1,30,0.00,,CLR,0.00,VWS V14.01,2013-10-09 21:12:00,
2013-10-09 16:13:00,78.3,44.3,29.26,SE,138,4.0,8.1,30,0.00,,CLR,0.00,VWS V14.01,2013-10-09 21:13:00,
2013-10-09 16:15:00,78.1,44.2,29.26,SSE,147,4.0,4.0,30,0.00,,CLR,0.00,VWS V14.01,2013-10-09 21:15:00,
2013-10-09 16:16:00,78.1,44.2,29.26,South,186,5.8,5.8,30,0.00,,CLR,0.00,VWS V14.01,2013-10-09 21:16:00,
2013-10-09 16:17:00,78.3,44.3,29.26,SSE,159,5.8,5.8,30,0.00,,CLR,0.00,VWS V14.01,2013-10-09 21:17:00,
2013-10-09 16:18:00,78.1,44.2,29.26,SSE,155,5.8,5.8,30,0.00,,CLR,0.00,VWS V14.01,2013-10-09 21:18:00,
2013-10-09 16:19:00,78.1,44.2,29.26,SE,144,7.6,7.6,30,0.00,,CLR,0.00,VWS V14.01,2013-10-09 21:19:00,
2013-10-09 16:21:00,78.1,44.2,29.26,SSE,166,4.0,4.0,30,0.00,,CLR,0.00,VWS V14.01,2013-10-09 21:21:00,
2013-10-09 16:23:00,78.1,44.2,29.26,South,188,3.6,6.3,30,0.00,,CLR,0.00,VWS V14.01,2013-10-09 21:23:00,
2013-10-09 16:24:00,78.1,44.2,29.26,South,170,7.6,7.6,30,0.00,,CLR,0.00,VWS V14.01,2013-10-09 21:24:00,
2013-10-09 16:25:00,78.1,44.2,29.26,South,188,7.6,7.6,30,0.00,,CLR,0.00,VWS V14.01,2013-10-09 21:25:00,
2013-10-09 16:26:00,78.1,44.2,29.26,SSE,154,0.0,5.4,30,0.00,,CLR,0.00,VWS V14.01,2013-10-09 21:26:00,
2013-10-09 16:28:00,78.1,44.2,29.26,SSE,163,3.6,6.3,30,0.00,,CLR,0.00,VWS V14.01,2013-10-09 21:28:00,
2013-10-09 16:29:00,77.9,44.0,29.26,SSW,199,6.7,8.3,30,0.00,,CLR,0.00,VWS V14.01,2013-10-09 21:29:00,
2013-10-09 16:31:00,77.9,44.0,29.26,SE,133,3.1,4.9,30,0.00,,CLR,0.00,VWS V14.01,2013-10-09 21:31:00,
2013-10-09 16:32:00,77.9,44.0,29.26,South,187,8.7,8.7,30,0.00,,CLR,0.00,VWS V14.01,2013-10-09 21:32:00,
2013-10-09 16:33:00,77.9,44.0,29.26,SSE,167,8.3,8.3,30,0.00,,CLR,0.00,VWS V14.01,2013-10-09 21:33:00,
2013-10-09 16:35:00,77.7,43.8,29.26,SSE,153,4.0,5.8,30,0.00,,CLR,0.00,VWS V14.01,2013-10-09 21:35:00,
2013-10-09 16:36:00,77.7,43.8,29.26,SE,146,4.9,6.3,30,0.00,,CLR,0.00,VWS V14.01,2013-10-09 21:36:00,
2013-10-09 16:38:00,77.7,43.8,29.26,SE,133,3.6,5.8,30,0.00,,CLR,0.00,VWS V14.01,2013-10-09 21:38:00,
2013-10-09 16:39:00,77.7,43.8,29.26,SE,139,3.6,4.0,30,0.00,,CLR,0.00,VWS V14.01,2013-10-09 21:39:00,
2013-10-09 16:40:00,77.7,43.8,29.26,SE,141,4.9,5.4,30,0.00,,CLR,0.00,VWS V14.01,2013-10-09 21:40:00,
2013-10-09 16:42:00,77.7,43.8,29.26,SSE,147,2.2,4.0,30,0.00,,CLR,0.00,VWS V14.01,2013-10-09 21:42:00,
2013-10-09 16:44:00,77.7,43.8,29.26,SSE,153,4.0,6.3,30,0.00,,CLR,0.00,VWS V14.01,2013-10-09 21:44:00,
2013-10-09 16:45:00,77.7,43.8,29.26,SE,145,5.8,5.8,30,0.00,,CLR,0.00,VWS V14.01,2013-10-09 21:45:00,
2013-10-09 16:46:00,77.7,43.8,29.26,SSE,158,4.0,5.8,30,0.00,,CLR,0.00,VWS V14.01,2013-10-09 21:46:00,
2013-10-09 16:47:00,77.7,43.8,29.26,SSE,167,6.7,6.7,30,0.00,,CLR,0.00,VWS V14.01,2013-10-09 21:47:00,
2013-10-09 16:49:00,77.7,43.8,29.26,SE,140,3.6,5.8,30,0.00,,CLR,0.00,VWS V14.01,2013-10-09 21:49:00,
2013-10-09 16:50:00,77.5,43.7,29.26,SE,125,4.9,4.9,30,0.00,,CLR,0.00,VWS V14.01,2013-10-09 21:50:00,
2013-10-09 16:51:00,77.5,43.7,29.26,SSE,156,4.9,5.8,30,0.00,,CLR,0.00,VWS V14.01,2013-10-09 21:51:00,
2013-10-09 16:52:00,77.5,43.7,29.26,South,188,6.3,6.3,30,0.00,,CLR,0.00,VWS V14.01,2013-10-09 21:52:00,
2013-10-09 16:53:00,77.5,43.7,29.26,SE,139,3.1,7.2,30,0.00,,CLR,0.00,VWS V14.01,2013-10-09 21:53:00,
2013-10-09 16:54:00,77.5,43.7,29.26,SSE,166,3.1,4.0,30,0.00,,CLR,0.00,VWS V14.01,2013-10-09 21:54:00,
2013-10-09 16:55:00,77.4,43.5,29.26,SSE,163,7.6,7.6,30,0.00,,CLR,0.00,VWS V14.01,2013-10-09 21:55:00,
2013-10-09 16:56:00,77.4,43.5,29.26,South,188,2.7,7.6,30,0.00,,CLR,0.00,VWS V14.01,2013-10-09 21:56:00,
2013-10-09 16:58:00,77.4,43.5,29.26,SE,126,2.7,3.6,30,0.00,,CLR,0.00,VWS V14.01,2013-10-09 21:58:00,
2013-10-09 17:00:00,77.2,43.4,29.26,South,171,5.8,7.6,30,0.00,,CLR,0.00,VWS V14.01,2013-10-09 22:00:00,
2013-10-09 17:01:00,77.2,43.4,29.26,SSE,158,4.9,4.9,30,0.00,,CLR,0.00,VWS V14.01,2013-10-09 22:01:00,
2013-10-09 17:03:00,77.0,43.2,29.26,SSE,151,5.4,5.4,30,0.00,,CLR,0.00,VWS V14.01,2013-10-09 22:03:00,
2013-10-09 17:04:00,77.0,43.2,29.26,SSE,154,5.8,5.8,30,0.00,,CLR,0.00,VWS V14.01,2013-10-09 22:04:00,
2013-10-09 17:05:00,77.0,43.2,29.26,SSE,148,2.2,5.8,30,0.00,,CLR,0.00,VWS V14.01,2013-10-09 22:05:00,
2013-10-09 17:07:00,77.0,43.2,29.26,SE,146,5.4,5.4,30,0.00,,CLR,0.00,VWS V14.01,2013-10-09 22:07:00,
2013-10-09 17:09:00,76.8,43.1,29.26,SSE,160,5.4,5.4,30,0.00,,CLR,0.00,VWS V14.01,2013-10-09 22:09:00,
2013-10-09 17:10:00,76.6,42.9,29.26,ESE,123,3.6,5.4,30,0.00,,CLR,0.00,VWS V14.01,2013-10-09 22:10:00,
2013-10-09 17:12:00,76.6,42.9,29.26,SSE,150,8.1,8.1,30,0.00,,CLR,0.00,VWS V14.01,2013-10-09 22:12:00,
2013-10-09 17:13:00,76.5,42.8,29.26,South,182,3.1,8.3,30,0.00,,CLR,0.00,VWS V14.01,2013-10-09 22:13:00,
2013-10-09 17:14:00,76.5,42.8,29.26,SSE,168,5.4,5.8,30,0.00,,CLR,0.00,VWS V14.01,2013-10-09 22:14:00,
2013-10-09 17:15:00,76.5,42.8,29.26,SSE,157,6.3,6.3,30,0.00,,CLR,0.00,VWS V14.01,2013-10-09 22:15:00,
2013-10-09 17:17:00,76.1,42.5,29.26,SSE,153,3.6,5.4,30,0.00,,CLR,0.00,VWS V14.01,2013-10-09 22:17:00,
2013-10-09 17:19:00,76.1,42.5,29.26,South,173,3.1,5.8,30,0.00,,CLR,0.00,VWS V14.01,2013-10-09 22:19:00,
2013-10-09 17:20:00,76.1,42.5,29.26,SSE,166,3.6,4.9,30,0.00,,CLR,0.00,VWS V14.01,2013-10-09 22:20:00,
2013-10-09 17:21:00,75.9,42.3,29.26,SSE,164,3.6,6.3,30,0.00,,CLR,0.00,VWS V14.01,2013-10-09 22:21:00,
2013-10-09 17:22:00,75.9,42.3,29.26,SSE,157,5.4,5.4,30,0.00,,CLR,0.00,VWS V14.01,2013-10-09 22:22:00,
2013-10-09 17:24:00,75.7,42.1,29.26,SSE,161,5.8,5.8,30,0.00,,CLR,0.00,VWS V14.01,2013-10-09 22:24:00,
2013-10-09 17:25:00,75.7,42.1,29.26,SSE,163,5.4,5.8,30,0.00,,CLR,0.00,VWS V14.01,2013-10-09 22:25:00,
2013-10-09 17:26:00,75.7,42.1,29.26,SSE,155,3.6,5.4,30,0.00,,CLR,0.00,VWS V14.01,2013-10-09 22:26:00,
2013-10-09 17:27:00,75.7,42.1,29.26,SSE,157,4.9,5.4,30,0.00,,CLR,0.00,VWS V14.01,2013-10-09 22:27:00,
2013-10-09 17:30:00,75.6,42.0,29.26,SSE,163,4.5,4.5,30,0.00,,CLR,0.00,VWS V14.01,2013-10-09 22:30:00,
2013-10-09 17:32:00,75.6,42.0,29.26,SSE,158,2.7,3.1,30,0.00,,CLR,0.00,VWS V14.01,2013-10-09 22:32:00,
2013-10-09 17:33:00,75.6,42.0,29.26,SSE,158,0.0,4.0,30,0.00,,CLR,0.00,VWS V14.01,2013-10-09 22:33:00,
2013-10-09 17:37:00,75.4,41.8,29.26,SSE,166,3.1,4.9,30,0.00,,CLR,0.00,VWS V14.01,2013-10-09 22:37:00,
2013-10-09 17:38:00,75.4,41.8,29.26,SSE,168,2.2,4.9,30,0.00,,CLR,0.00,VWS V14.01,2013-10-09 22:38:00,
2013-10-09 17:39:00,75.4,41.8,29.26,South,170,3.1,3.1,30,0.00,,CLR,0.00,VWS V14.01,2013-10-09 22:39:00,
2013-10-09 17:42:00,75.4,41.8,29.26,SSE,156,2.7,4.0,30,0.00,,CLR,0.00,VWS V14.01,2013-10-09 22:42:00,
2013-10-09 17:43:00,75.2,41.7,29.26,SSE,156,3.6,4.0,30,0.00,,CLR,0.00,VWS V14.01,2013-10-09 22:43:00,
2013-10-09 17:44:00,75.2,41.7,29.26,SSE,162,3.6,3.6,30,0.00,,CLR,0.00,VWS V14.01,2013-10-09 22:44:00,
2013-10-09 17:46:00,75.2,41.7,29.26,SSE,162,2.2,3.1,30,0.00,,CLR,0.00,VWS V14.01,2013-10-09 22:46:00,
2013-10-09 17:48:00,74.8,43.0,29.26,SSE,163,3.1,7.6,32,0.00,,CLR,0.00,VWS V14.01,2013-10-09 22:48:00,
2013-10-09 17:49:00,74.8,43.0,29.26,SSE,158,5.8,5.8,32,0.00,,CLR,0.00,VWS V14.01,2013-10-09 22:49:00,
2013-10-09 17:50:00,74.7,42.9,29.26,South,169,4.9,5.8,32,0.00,,CLR,0.00,VWS V14.01,2013-10-09 22:50:00,
2013-10-09 17:51:00,74.7,42.9,29.26,SSE,160,4.9,4.9,32,0.00,,CLR,0.00,VWS V14.01,2013-10-09 22:51:00,
2013-10-09 17:52:00,74.5,42.7,29.26,SSE,163,0.0,4.9,32,0.00,,CLR,0.00,VWS V14.01,2013-10-09 22:52:00,
2013-10-09 17:54:00,74.1,42.4,29.26,SSE,153,2.2,3.6,32,0.00,,CLR,0.00,VWS V14.01,2013-10-09 22:54:00,
2013-10-09 17:55:00,74.1,42.4,29.26,SE,145,2.7,3.6,32,0.00,,CLR,0.00,VWS V14.01,2013-10-09 22:55:00,
2013-10-09 17:56:00,74.1,42.4,29.26,SSE,152,3.6,3.6,32,0.00,,CLR,0.00,VWS V14.01,2013-10-09 22:56:00,
2013-10-09 17:59:00,73.8,42.1,29.26,SSE,163,0.0,4.0,32,0.00,,CLR,0.00,VWS V14.01,2013-10-09 22:59:00,
2013-10-09 18:00:00,73.6,41.9,29.26,SSE,152,5.4,5.4,32,0.00,,CLR,0.00,VWS V14.01,2013-10-09 23:00:00,
2013-10-09 18:01:00,73.4,41.8,29.26,SSE,154,3.1,5.4,32,0.00,,CLR,0.00,VWS V14.01,2013-10-09 23:01:00,
2013-10-09 18:02:00,73.4,41.8,29.26,SSE,160,5.4,5.4,32,0.00,,CLR,0.00,VWS V14.01,2013-10-09 23:02:00,
2013-10-09 18:05:00,73.0,41.5,29.26,SSE,159,3.6,6.3,32,0.00,,CLR,0.00,VWS V14.01,2013-10-09 23:05:00,
2013-10-09 18:06:00,72.7,41.2,29.26,SSE,149,4.9,4.9,32,0.00,,CLR,0.00,VWS V14.01,2013-10-09 23:06:00,
2013-10-09 18:08:00,72.5,41.0,29.26,SSE,167,2.7,2.7,32,0.00,,CLR,0.00,VWS V14.01,2013-10-09 23:08:00,
2013-10-09 18:09:00,72.3,40.8,29.26,SSE,154,2.7,4.0,32,0.00,,CLR,0.00,VWS V14.01,2013-10-09 23:09:00,
2013-10-09 18:10:00,72.3,40.8,29.26,SSE,151,3.6,4.0,32,0.00,,CLR,0.00,VWS V14.01,2013-10-09 23:10:00,
2013-10-09 18:11:00,72.0,40.5,29.26,SSE,148,4.0,4.0,32,0.00,,CLR,0.00,VWS V14.01,2013-10-09 23:11:00,
2013-10-09 18:13:00,71.8,40.4,29.26,SSE,158,0.0,3.6,32,0.00,,CLR,0.00,VWS V14.01,2013-10-09 23:13:00,
2013-10-09 18:14:00,71.8,40.4,29.26,SSE,158,0.0,0.0,32,0.00,,CLR,0.00,VWS V14.01,2013-10-09 23:14:00,
2013-10-09 18:15:00,71.6,40.2,29.26,SSE,157,0.0,0.0,32,0.00,,CLR,0.00,VWS V14.01,2013-10-09 23:15:00,
2013-10-09 18:16:00,71.4,41.6,29.26,SSE,158,0.0,0.0,34,0.00,,CLR,0.00,VWS V14.01,2013-10-09 23:16:00,
2013-10-09 18:17:00,71.2,41.5,29.26,SSE,158,0.0,0.0,34,0.00,,CLR,0.00,VWS V14.01,2013-10-09 23:17:00,
2013-10-09 18:20:00,70.9,41.1,29.26,SSE,158,0.0,2.2,34,0.00,,CLR,0.00,VWS V14.01,2013-10-09 23:20:00,
2013-10-09 18:21:00,70.7,41.0,29.26,SSE,158,0.0,0.0,34,0.00,,CLR,0.00,VWS V14.01,2013-10-09 23:21:00,
2013-10-09 18:22:00,70.5,40.8,29.26,SSE,158,0.0,0.0,34,0.00,,CLR,0.00,VWS V14.01,2013-10-09 23:22:00,
2013-10-09 18:23:00,70.2,35.6,29.26,SSE,158,0.0,0.0,28,0.00,,CLR,0.00,VWS V14.01,2013-10-09 23:23:00,
2013-10-09 18:25:00,69.8,35.3,29.26,SSE,158,0.0,0.0,28,0.00,,CLR,0.00,VWS V14.01,2013-10-09 23:25:00,
2013-10-09 18:26:00,69.6,36.8,29.26,SSE,158,0.0,0.0,30,0.00,,CLR,0.00,VWS V14.01,2013-10-09 23:26:00,
2013-10-09 18:27:00,69.4,36.7,29.26,SSE,158,0.0,0.0,30,0.00,,CLR,0.00,VWS V14.01,2013-10-09 23:27:00,
2013-10-09 18:28:00,69.1,36.4,29.26,SSE,157,0.0,0.0,30,0.00,,CLR,0.00,VWS V14.01,2013-10-09 23:28:00,
2013-10-09 18:30:00,68.5,35.9,29.26,SSE,158,0.0,0.0,30,0.00,,CLR,0.00,VWS V14.01,2013-10-09 23:30:00,
2013-10-09 18:31:00,68.2,35.6,29.26,SSE,158,0.0,0.0,30,0.00,,CLR,0.00,VWS V14.01,2013-10-09 23:31:00,
2013-10-09 18:32:00,67.8,35.3,29.26,SSE,158,0.0,0.0,30,0.00,,CLR,0.00,VWS V14.01,2013-10-09 23:32:00,
2013-10-09 18:34:00,67.3,34.8,29.26,SSE,158,0.0,0.0,30,0.00,,CLR,0.00,VWS V14.01,2013-10-09 23:34:00,
2013-10-09 18:35:00,67.1,34.7,29.26,SSE,158,0.0,0.0,30,0.00,,CLR,0.00,VWS V14.01,2013-10-09 23:35:00,
2013-10-09 18:36:00,66.9,34.5,29.26,SSE,158,0.0,0.0,30,0.00,,CLR,0.00,VWS V14.01,2013-10-09 23:36:00,
2013-10-09 18:37:00,66.7,34.3,29.26,SSE,158,0.0,0.0,30,0.00,,CLR,0.00,VWS V14.01,2013-10-09 23:37:00,
2013-10-09 18:38:00,66.4,34.0,29.26,SSE,158,0.0,0.0,30,0.00,,CLR,0.00,VWS V14.01,2013-10-09 23:38:00,
2013-10-09 18:39:00,66.2,33.9,29.26,SSE,158,0.0,0.0,30,0.00,,CLR,0.00,VWS V14.01,2013-10-09 23:39:00,
2013-10-09 18:40:00,66.0,33.7,29.26,SSE,158,0.0,0.0,30,0.00,,CLR,0.00,VWS V14.01,2013-10-09 23:40:00,
2013-10-09 18:42:00,65.8,33.6,29.26,SSE,158,0.0,0.0,30,0.00,,CLR,0.00,VWS V14.01,2013-10-09 23:42:00,
2013-10-09 18:43:00,65.7,33.4,29.26,SSE,158,0.0,0.0,30,0.00,,CLR,0.00,VWS V14.01,2013-10-09 23:43:00,
2013-10-09 18:44:00,65.5,33.3,29.26,SSE,158,0.0,0.0,30,0.00,,CLR,0.00,VWS V14.01,2013-10-09 23:44:00,
2013-10-09 18:46:00,64.9,32.8,29.26,SSE,158,0.0,0.0,30,0.00,,CLR,0.00,VWS V14.01,2013-10-09 23:46:00,
2013-10-09 18:47:00,64.8,32.6,29.26,SSE,158,0.0,0.0,30,0.00,,CLR,0.00,VWS V14.01,2013-10-09 23:47:00,
2013-10-09 18:48:00,64.6,32.5,29.26,SSE,158,0.0,0.0,30,0.00,,CLR,0.00,VWS V14.01,2013-10-09 23:48:00,
2013-10-09 18:49:00,64.2,33.8,29.26,SSE,158,0.0,0.0,32,0.00,,CLR,0.00,VWS V14.01,2013-10-09 23:49:00,
2013-10-09 18:51:00,63.9,33.5,29.26,SSE,158,0.0,0.0,32,0.00,,CLR,0.00,VWS V14.01,2013-10-09 23:51:00,
2013-10-09 18:52:00,63.5,33.1,29.26,SSE,158,0.0,0.0,32,0.00,,CLR,0.00,VWS V14.01,2013-10-09 23:52:00,
2013-10-09 18:53:00,63.3,33.0,29.26,SSE,158,0.0,0.0,32,0.00,,CLR,0.00,VWS V14.01,2013-10-09 23:53:00,
2013-10-09 18:54:00,63.1,32.8,29.26,SSE,158,0.0,0.0,32,0.00,,CLR,0.00,VWS V14.01,2013-10-09 23:54:00,
2013-10-09 18:55:00,63.0,32.7,29.26,SSE,158,0.0,0.0,32,0.00,,CLR,0.00,VWS V14.01,2013-10-09 23:55:00,
2013-10-09 18:56:00,62.8,32.5,29.26,SSE,158,0.0,0.0,32,0.00,,CLR,0.00,VWS V14.01,2013-10-09 23:56:00,
2013-10-09 18:58:00,62.6,32.3,29.26,SSE,158,0.0,0.0,32,0.00,,CLR,0.00,VWS V14.01,2013-10-09 23:58:00,
2013-10-09 18:59:00,62.6,32.3,29.26,SSE,157,0.0,0.0,32,0.00,,CLR,0.00,VWS V14.01,2013-10-09 23:59:00,
2013-10-09 19:00:00,62.4,32.2,29.26,SSE,158,0.0,0.0,32,0.00,,CLR,0.00,VWS V14.01,2013-10-10 00:00:00,
2013-10-09 19:02:00,62.2,32.0,29.26,SSE,158,0.0,0.0,32,0.00,,CLR,0.00,VWS V14.01,2013-10-10 00:02:00,
2013-10-09 19:03:00,62.2,32.0,29.26,SSE,158,0.0,0.0,32,0.00,,CLR,0.00,VWS V14.01,2013-10-10 00:03:00,
2013-10-09 19:04:00,62.2,32.0,29.26,SSE,158,0.0,0.0,32,0.00,,CLR,0.00,VWS V14.01,2013-10-10 00:04:00,
2013-10-09 19:05:00,62.1,31.9,29.26,SSE,158,0.0,0.0,32,0.00,,CLR,0.00,VWS V14.01,2013-10-10 00:05:00,
2013-10-09 19:06:00,61.9,31.7,29.26,SSE,158,0.0,0.0,32,0.00,,CLR,0.00,VWS V14.01,2013-10-10 00:06:00,
2013-10-09 19:07:00,61.9,31.7,29.26,SSE,158,0.0,0.0,32,0.00,,CLR,0.00,VWS V14.01,2013-10-10 00:07:00,
2013-10-09 19:09:00,61.7,31.6,29.26,SSE,158,0.0,0.0,32,0.00,,CLR,0.00,VWS V14.01,2013-10-10 00:09:00,
2013-10-09 19:10:00,61.3,31.2,29.26,SSE,158,0.0,0.0,32,0.00,,CLR,0.00,VWS V14.01,2013-10-10 00:10:00,
2013-10-09 19:11:00,61.3,31.2,29.26,SSE,158,0.0,0.0,32,0.00,,CLR,0.00,VWS V14.01,2013-10-10 00:11:00,
2013-10-09 19:12:00,61.3,31.2,29.26,SSE,158,0.0,0.0,32,0.00,,CLR,0.00,VWS V14.01,2013-10-10 00:12:00,
2013-10-09 19:14:00,61.2,31.1,29.26,SSE,158,0.0,0.0,32,0.00,,CLR,0.00,VWS V14.01,2013-10-10 00:14:00,
2013-10-09 19:16:00,61.0,30.9,29.26,SSE,158,0.0,0.0,32,0.00,,CLR,0.00,VWS V14.01,2013-10-10 00:16:00,
2013-10-09 19:17:00,61.0,30.9,29.26,SSE,158,0.0,0.0,32,0.00,,CLR,0.00,VWS V14.01,2013-10-10 00:17:00,
2013-10-09 19:18:00,61.0,30.9,29.26,SSE,158,0.0,0.0,32,0.00,,CLR,0.00,VWS V14.01,2013-10-10 00:18:00,
2013-10-09 19:20:00,60.8,30.8,29.26,SSE,158,0.0,0.0,32,0.00,,CLR,0.00,VWS V14.01,2013-10-10 00:20:00,
2013-10-09 19:21:00,60.8,30.8,29.26,SSE,158,0.0,0.0,32,0.00,,CLR,0.00,VWS V14.01,2013-10-10 00:21:00,
2013-10-09 19:22:00,60.6,32.1,29.26,SSE,158,0.0,0.0,34,0.00,,CLR,0.00,VWS V14.01,2013-10-10 00:22:00,
2013-10-09 19:25:00,60.4,32.0,29.26,SSE,158,0.0,0.0,34,0.00,,CLR,0.00,VWS V14.01,2013-10-10 00:25:00,
2013-10-09 19:27:00,60.3,31.8,29.26,SSE,158,0.0,0.0,34,0.00,,CLR,0.00,VWS V14.01,2013-10-10 00:27:00,
2013-10-09 19:28:00,60.3,31.8,29.26,SSE,157,0.0,0.0,34,0.00,,CLR,0.00,VWS V14.01,2013-10-10 00:28:00,
2013-10-09 19:29:00,60.1,31.6,29.26,SSE,158,0.0,0.0,34,0.00,,CLR,0.00,VWS V14.01,2013-10-10 00:29:00,
2013-10-09 19:31:00,59.9,31.5,29.26,SSE,158,0.0,0.0,34,0.00,,CLR,0.00,VWS V14.01,2013-10-10 00:31:00,
2013-10-09 19:33:00,59.7,31.3,29.26,SSE,158,0.0,0.0,34,0.00,,CLR,0.00,VWS V14.01,2013-10-10 00:33:00,
2013-10-09 19:34:00,59.7,31.3,29.26,SSE,158,0.0,0.0,34,0.00,,CLR,0.00,VWS V14.01,2013-10-10 00:34:00,
2013-10-09 19:35:00,59.7,31.3,29.26,SSE,158,0.0,0.0,34,0.00,,CLR,0.00,VWS V14.01,2013-10-10 00:35:00,
2013-10-09 19:38:00,59.9,31.5,29.26,SSE,157,0.0,0.0,34,0.00,,CLR,0.00,VWS V14.01,2013-10-10 00:38:00,
2013-10-09 19:39:00,59.9,31.5,29.26,SSE,158,0.0,0.0,34,0.00,,CLR,0.00,VWS V14.01,2013-10-10 00:39:00,
2013-10-09 19:40:00,59.9,31.5,29.26,SSE,158,0.0,0.0,34,0.00,,CLR,0.00,VWS V14.01,2013-10-10 00:40:00,
2013-10-09 19:41:00,59.9,31.5,29.26,SSE,158,0.0,0.0,34,0.00,,CLR,0.00,VWS V14.01,2013-10-10 00:41:00,
2013-10-09 19:43:00,59.7,31.3,29.26,SSE,158,0.0,0.0,34,0.00,,CLR,0.00,VWS V14.01,2013-10-10 00:43:00,
2013-10-09 19:45:00,59.7,31.3,29.26,SSE,158,0.0,0.0,34,0.00,,CLR,0.00,VWS V14.01,2013-10-10 00:45:00,
2013-10-09 19:46:00,59.9,31.5,29.26,SSE,158,0.0,2.7,34,0.00,,CLR,0.00,VWS V14.01,2013-10-10 00:46:00,
2013-10-09 19:49:00,59.9,31.5,29.26,SSE,158,0.0,0.0,34,0.00,,CLR,0.00,VWS V14.01,2013-10-10 00:49:00,
2013-10-09 19:50:00,59.9,31.5,29.26,SSE,158,0.0,0.0,34,0.00,,CLR,0.00,VWS V14.01,2013-10-10 00:50:00,
2013-10-09 19:51:00,59.9,31.5,29.26,SSE,158,0.0,0.0,34,0.00,,CLR,0.00,VWS V14.01,2013-10-10 00:51:00,
2013-10-09 19:52:00,59.9,31.5,29.26,SSE,158,0.0,0.0,34,0.00,,CLR,0.00,VWS V14.01,2013-10-10 00:52:00,
2013-10-09 19:53:00,59.9,31.5,29.26,SSE,158,0.0,0.0,34,0.00,,CLR,0.00,VWS V14.01,2013-10-10 00:53:00,
2013-10-09 19:54:00,59.9,31.5,29.26,SSE,158,0.0,0.0,34,0.00,,CLR,0.00,VWS V14.01,2013-10-10 00:54:00,
2013-10-09 19:56:00,59.9,31.5,29.26,SSE,158,0.0,0.0,34,0.00,,CLR,0.00,VWS V14.01,2013-10-10 00:56:00,
2013-10-09 19:57:00,59.9,31.5,29.26,SSE,158,0.0,0.0,34,0.00,,CLR,0.00,VWS V14.01,2013-10-10 00:57:00,
2013-10-09 19:58:00,59.9,31.5,29.26,SSE,158,0.0,0.0,34,0.00,,CLR,0.00,VWS V14.01,2013-10-10 00:58:00,
2013-10-09 19:59:00,59.7,31.3,29.26,SSE,158,0.0,0.0,34,0.00,,CLR,0.00,VWS V14.01,2013-10-10 00:59:00,
2013-10-09 20:01:00,59.7,31.3,29.26,SSE,158,0.0,0.0,34,0.00,,CLR,0.00,VWS V14.01,2013-10-10 01:01:00,
2013-10-09 20:02:00,59.7,31.3,29.26,SSE,158,0.0,0.0,34,0.00,,CLR,0.00,VWS V14.01,2013-10-10 01:02:00,
2013-10-09 20:03:00,59.7,31.3,29.26,SSE,158,0.0,0.0,34,0.00,,CLR,0.00,VWS V14.01,2013-10-10 01:03:00,
2013-10-09 20:05:00,59.7,31.3,29.26,SSE,158,0.0,0.0,34,0.00,,CLR,0.00,VWS V14.01,2013-10-10 01:05:00,
2013-10-09 20:06:00,59.5,31.2,29.26,SSE,158,0.0,0.0,34,0.00,,CLR,0.00,VWS V14.01,2013-10-10 01:06:00,
2013-10-09 20:07:00,59.5,31.2,29.26,SSE,158,0.0,0.0,34,0.00,,CLR,0.00,VWS V14.01,2013-10-10 01:07:00,
2013-10-09 20:08:00,59.4,31.0,29.26,SSE,158,0.0,0.0,34,0.00,,CLR,0.00,VWS V14.01,2013-10-10 01:08:00,
2013-10-09 20:10:00,59.2,30.9,29.26,SSE,158,0.0,0.0,34,0.00,,CLR,0.00,VWS V14.01,2013-10-10 01:10:00,
2013-10-09 20:12:00,58.8,30.5,29.26,SSE,158,0.0,0.0,34,0.00,,CLR,0.00,VWS V14.01,2013-10-10 01:12:00,
2013-10-09 20:13:00,58.6,30.4,29.26,SSE,158,0.0,0.0,34,0.00,,CLR,0.00,VWS V14.01,2013-10-10 01:13:00,
2013-10-09 20:14:00,58.5,30.2,29.26,SSE,158,0.0,0.0,34,0.00,,CLR,0.00,VWS V14.01,2013-10-10 01:14:00,
2013-10-09 20:15:00,58.5,30.2,29.26,SSE,158,0.0,0.0,34,0.00,,CLR,0.00,VWS V14.01,2013-10-10 01:15:00,
2013-10-09 20:17:00,58.3,30.1,29.26,SSE,158,0.0,0.0,34,0.00,,CLR,0.00,VWS V14.01,2013-10-10 01:17:00,
2013-10-09 20:19:00,58.1,29.9,29.26,SSE,158,0.0,0.0,34,0.00,,CLR,0.00,VWS V14.01,2013-10-10 01:19:00,
2013-10-09 20:20:00,57.9,29.7,29.26,SSE,158,0.0,0.0,34,0.00,,CLR,0.00,VWS V14.01,2013-10-10 01:20:00,
2013-10-09 20:22:00,57.9,29.7,29.26,SSE,158,0.0,0.0,34,0.00,,CLR,0.00,VWS V14.01,2013-10-10 01:22:00,
2013-10-09 20:23:00,57.9,29.7,29.26,SSE,158,0.0,0.0,34,0.00,,CLR,0.00,VWS V14.01,2013-10-10 01:23:00,
2013-10-09 20:24:00,57.9,29.7,29.26,SSE,158,0.0,0.0,34,0.00,,CLR,0.00,VWS V14.01,2013-10-10 01:24:00,
2013-10-09 20:25:00,58.1,29.9,29.26,SSE,158,0.0,0.0,34,0.00,,CLR,0.00,VWS V14.01,2013-10-10 01:25:00,
2013-10-09 20:26:00,57.9,29.7,29.26,SSE,158,0.0,0.0,34,0.00,,CLR,0.00,VWS V14.01,2013-10-10 01:26:00,
2013-10-09 20:27:00,58.1,29.9,29.26,SSE,158,0.0,0.0,34,0.00,,CLR,0.00,VWS V14.01,2013-10-10 01:27:00,
2013-10-09 20:28:00,58.1,29.9,29.26,SSE,158,0.0,0.0,34,0.00,,CLR,0.00,VWS V14.01,2013-10-10 01:28:00,
2013-10-09 20:29:00,57.9,29.7,29.26,SSE,158,0.0,0.0,34,0.00,,CLR,0.00,VWS V14.01,2013-10-10 01:29:00,
2013-10-09 20:30:00,57.9,29.7,29.26,SSE,157,0.0,0.0,34,0.00,,CLR,0.00,VWS V14.01,2013-10-10 01:30:00,
2013-10-09 20:31:00,57.9,29.7,29.26,SSE,158,0.0,0.0,34,0.00,,CLR,0.00,VWS V14.01,2013-10-10 01:31:00,
2013-10-09 20:33:00,57.7,29.6,29.26,SSE,158,0.0,0.0,34,0.00,,CLR,0.00,VWS V14.01,2013-10-10 01:33:00,
2013-10-09 20:34:00,57.7,29.6,29.26,SSE,158,0.0,0.0,34,0.00,,CLR,0.00,VWS V14.01,2013-10-10 01:34:00,
2013-10-09 20:36:00,57.6,29.4,29.26,SSE,158,0.0,0.0,34,0.00,,CLR,0.00,VWS V14.01,2013-10-10 01:36:00,
2013-10-09 20:37:00,57.4,29.3,29.26,SSE,158,0.0,0.0,34,0.00,,CLR,0.00,VWS V14.01,2013-10-10 01:37:00,
2013-10-09 20:38:00,57.4,29.3,29.26,SSE,157,0.0,0.0,34,0.00,,CLR,0.00,VWS V14.01,2013-10-10 01:38:00,
2013-10-09 20:40:00,57.4,29.3,29.26,SSE,158,0.0,0.0,34,0.00,,CLR,0.00,VWS V14.01,2013-10-10 01:40:00,
2013-10-09 20:41:00,57.2,29.1,29.26,SSE,158,0.0,0.0,34,0.00,,CLR,0.00,VWS V14.01,2013-10-10 01:41:00,
2013-10-09 20:42:00,57.2,29.1,29.26,SSE,158,0.0,0.0,34,0.00,,CLR,0.00,VWS V14.01,2013-10-10 01:42:00,
2013-10-09 20:44:00,57.2,29.1,29.26,SSE,158,0.0,0.0,34,0.00,,CLR,0.00,VWS V14.01,2013-10-10 01:44:00,
2013-10-09 20:46:00,57.2,29.1,29.26,SSE,158,0.0,0.0,34,0.00,,CLR,0.00,VWS V14.01,2013-10-10 01:46:00,
2013-10-09 20:47:00,57.0,29.0,29.26,SSE,158,0.0,0.0,34,0.00,,CLR,0.00,VWS V14.01,2013-10-10 01:47:00,
2013-10-09 20:51:00,57.0,29.0,29.26,SSE,158,0.0,0.0,34,0.00,,CLR,0.00,VWS V14.01,2013-10-10 01:51:00,
2013-10-09 20:52:00,57.0,29.0,29.26,SSE,158,0.0,0.0,34,0.00,,CLR,0.00,VWS V14.01,2013-10-10 01:52:00,
2013-10-09 20:53:00,57.0,29.0,29.26,SSE,158,0.0,0.0,34,0.00,,CLR,0.00,VWS V14.01,2013-10-10 01:53:00,
2013-10-09 20:55:00,57.0,29.0,29.26,SSE,158,0.0,0.0,34,0.00,,CLR,0.00,VWS V14.01,2013-10-10 01:55:00,
2013-10-09 20:56:00,57.0,29.0,29.26,SSE,158,0.0,0.0,34,0.00,,CLR,0.00,VWS V14.01,2013-10-10 01:56:00,
2013-10-09 20:58:00,56.8,28.8,29.26,SSE,158,0.0,0.0,34,0.00,,CLR,0.00,VWS V14.01,2013-10-10 01:58:00,
2013-10-09 20:59:00,56.8,28.8,29.26,SSE,158,0.0,0.0,34,0.00,,CLR,0.00,VWS V14.01,2013-10-10 01:59:00,
2013-10-09 21:01:00,56.8,28.8,29.26,SSE,158,0.0,0.0,34,0.00,,CLR,0.00,VWS V14.01,2013-10-10 02:01:00,
2013-10-09 21:02:00,56.8,28.8,29.26,SSE,158,0.0,0.0,34,0.00,,CLR,0.00,VWS V14.01,2013-10-10 02:02:00,
2013-10-09 21:04:00,56.8,28.8,29.26,SSE,158,0.0,0.0,34,0.00,,CLR,0.00,VWS V14.01,2013-10-10 02:04:00,
2013-10-09 21:05:00,56.8,28.8,29.26,SSE,158,0.0,0.0,34,0.00,,CLR,0.00,VWS V14.01,2013-10-10 02:05:00,
2013-10-09 21:06:00,56.8,28.8,29.26,SSE,158,0.0,0.0,34,0.00,,CLR,0.00,VWS V14.01,2013-10-10 02:06:00,
2013-10-09 21:07:00,56.8,28.8,29.26,SSE,158,0.0,0.0,34,0.00,,CLR,0.00,VWS V14.01,2013-10-10 02:07:00,
2013-10-09 21:09:00,56.7,32.6,29.26,SSE,158,0.0,0.0,40,0.00,,CLR,0.00,VWS V14.01,2013-10-10 02:09:00,
2013-10-09 21:11:00,56.7,32.6,29.26,SSE,158,0.0,0.0,40,0.00,,CLR,0.00,VWS V14.01,2013-10-10 02:11:00,
2013-10-09 21:12:00,56.8,32.8,29.26,SSE,158,0.0,0.0,40,0.00,,CLR,0.00,VWS V14.01,2013-10-10 02:12:00,
2013-10-09 21:13:00,56.8,32.8,29.26,SSE,158,0.0,0.0,40,0.00,,CLR,0.00,VWS V14.01,2013-10-10 02:13:00,
2013-10-09 21:15:00,56.8,32.8,29.26,SSE,158,0.0,0.0,40,0.00,,CLR,0.00,VWS V14.01,2013-10-10 02:15:00,
2013-10-09 21:16:00,57.0,33.0,29.26,SSE,158,0.0,0.0,40,0.00,,CLR,0.00,VWS V14.01,2013-10-10 02:16:00,
2013-10-09 21:17:00,57.0,33.0,29.26,SSE,158,0.0,0.0,40,0.00,,CLR,0.00,VWS V14.01,2013-10-10 02:17:00,
2013-10-09 21:18:00,57.2,31.8,29.26,SSE,158,0.0,0.0,38,0.00,,CLR,0.00,VWS V14.01,2013-10-10 02:18:00,
2013-10-09 21:19:00,57.2,31.8,29.26,SSE,158,0.0,0.0,38,0.00,,CLR,0.00,VWS V14.01,2013-10-10 02:19:00,
2013-10-09 21:21:00,57.2,31.8,29.26,SSE,158,0.0,0.0,38,0.00,,CLR,0.00,VWS V14.01,2013-10-10 02:21:00,
2013-10-09 21:22:00,57.2,31.8,29.26,SSE,158,0.0,0.0,38,0.00,,CLR,0.00,VWS V14.01,2013-10-10 02:22:00,
2013-10-09 21:23:00,57.4,32.0,29.26,SSE,158,0.0,0.0,38,0.00,,CLR,0.00,VWS V14.01,2013-10-10 02:23:00,
2013-10-09 21:24:00,57.4,32.0,29.26,SSE,158,0.0,0.0,38,0.00,,CLR,0.00,VWS V14.01,2013-10-10 02:24:00,
2013-10-09 21:25:00,57.4,32.0,29.26,SSE,158,0.0,0.0,38,0.00,,CLR,0.00,VWS V14.01,2013-10-10 02:25:00,
2013-10-09 21:28:00,57.6,32.2,29.26,SSE,158,0.0,0.0,38,0.00,,CLR,0.00,VWS V14.01,2013-10-10 02:28:00,
2013-10-09 21:29:00,57.6,32.2,29.26,SSE,158,0.0,0.0,38,0.00,,CLR,0.00,VWS V14.01,2013-10-10 02:29:00,
2013-10-09 21:30:00,57.7,29.6,29.26,SSE,157,0.0,0.0,34,0.00,,CLR,0.00,VWS V14.01,2013-10-10 02:30:00,
2013-10-09 21:31:00,57.9,29.7,29.26,SSE,158,0.0,0.0,34,0.00,,CLR,0.00,VWS V14.01,2013-10-10 02:31:00,
2013-10-09 21:33:00,57.9,29.7,29.26,SSE,158,0.0,0.0,34,0.00,,CLR,0.00,VWS V14.01,2013-10-10 02:33:00,
2013-10-09 21:35:00,58.1,29.9,29.26,SSE,158,0.0,0.0,34,0.00,,CLR,0.00,VWS V14.01,2013-10-10 02:35:00,
2013-10-09 21:36:00,58.1,29.9,29.26,SSE,158,0.0,0.0,34,0.00,,CLR,0.00,VWS V14.01,2013-10-10 02:36:00,
2013-10-09 21:38:00,57.9,29.7,29.29,SSE,158,0.0,0.0,34,0.00,,CLR,0.00,VWS V14.01,2013-10-10 02:38:00,
2013-10-09 21:39:00,57.9,29.7,29.29,SSE,158,0.0,0.0,34,0.00,,CLR,0.00,VWS V14.01,2013-10-10 02:39:00,
2013-10-09 21:40:00,57.9,29.7,29.29,SSE,158,0.0,0.0,34,0.00,,CLR,0.00,VWS V14.01,2013-10-10 02:40:00,
2013-10-09 21:41:00,57.7,29.6,29.29,SSE,158,0.0,0.0,34,0.00,,CLR,0.00,VWS V14.01,2013-10-10 02:41:00,
2013-10-09 21:44:00,57.4,29.3,29.29,SSE,158,0.0,0.0,34,0.00,,CLR,0.00,VWS V14.01,2013-10-10 02:44:00,
2013-10-09 21:45:00,57.2,29.1,29.29,SSE,158,0.0,0.0,34,0.00,,CLR,0.00,VWS V14.01,2013-10-10 02:45:00,
2013-10-09 21:47:00,57.2,29.1,29.29,SSE,158,0.0,0.0,34,0.00,,CLR,0.00,VWS V14.01,2013-10-10 02:47:00,
2013-10-09 21:48:00,57.0,29.0,29.29,SSE,158,0.0,0.0,34,0.00,,CLR,0.00,VWS V14.01,2013-10-10 02:48:00,
2013-10-09 21:49:00,57.0,29.0,29.29,SSE,158,0.0,0.0,34,0.00,,CLR,0.00,VWS V14.01,2013-10-10 02:49:00,
2013-10-09 21:50:00,57.0,29.0,29.29,SSE,158,0.0,0.0,34,0.00,,CLR,0.00,VWS V14.01,2013-10-10 02:50:00,
2013-10-09 21:51:00,57.2,29.1,29.29,SSE,158,0.0,0.0,34,0.00,,CLR,0.00,VWS V14.01,2013-10-10 02:51:00,
2013-10-09 21:53:00,57.6,29.4,29.29,SSE,158,0.0,0.0,34,0.00,,CLR,0.00,VWS V14.01,2013-10-10 02:53:00,
2013-10-09 21:54:00,57.7,29.6,29.29,SSE,158,0.0,0.0,34,0.00,,CLR,0.00,VWS V14.01,2013-10-10 02:54:00,
2013-10-09 21:55:00,57.7,29.6,29.29,SSE,158,0.0,0.0,34,0.00,,CLR,0.00,VWS V14.01,2013-10-10 02:55:00,
2013-10-09 21:56:00,57.9,29.7,29.29,SSE,158,0.0,0.0,34,0.00,,CLR,0.00,VWS V14.01,2013-10-10 02:56:00,
2013-10-09 21:57:00,57.9,29.7,29.29,SSE,158,0.0,0.0,34,0.00,,CLR,0.00,VWS V14.01,2013-10-10 02:57:00,
2013-10-09 22:00:00,58.1,29.9,29.29,SSE,155,0.0,2.7,34,0.00,,CLR,0.00,VWS V14.01,2013-10-10 03:00:00,
2013-10-09 22:01:00,58.1,29.9,29.29,SSE,155,0.0,2.2,34,0.00,,CLR,0.00,VWS V14.01,2013-10-10 03:01:00,
2013-10-09 22:02:00,58.1,29.9,29.29,SSE,155,0.0,0.0,34,0.00,,CLR,0.00,VWS V14.01,2013-10-10 03:02:00,
2013-10-09 22:05:00,57.9,29.7,29.29,SSE,155,3.1,3.1,34,0.00,,CLR,0.00,VWS V14.01,2013-10-10 03:05:00,
2013-10-09 22:06:00,57.7,29.6,29.29,SSE,155,2.7,3.1,34,0.00,,CLR,0.00,VWS V14.01,2013-10-10 03:06:00,
2013-10-09 22:07:00,57.7,29.6,29.29,SSE,155,0.0,2.7,34,0.00,,CLR,0.00,VWS V14.01,2013-10-10 03:07:00,
2013-10-09 22:08:00,57.7,29.6,29.29,SSE,155,0.0,2.7,34,0.00,,CLR,0.00,VWS V14.01,2013-10-10 03:08:00,
2013-10-09 22:11:00,57.6,29.4,29.29,SSE,155,0.0,0.0,34,0.00,,CLR,0.00,VWS V14.01,2013-10-10 03:11:00,
2013-10-09 22:12:00,57.6,29.4,29.29,SSE,155,0.0,0.0,34,0.00,,CLR,0.00,VWS V14.01,2013-10-10 03:12:00,
2013-10-09 22:13:00,57.4,29.3,29.29,SSE,155,0.0,0.0,34,0.00,,CLR,0.00,VWS V14.01,2013-10-10 03:13:00,
2013-10-09 22:14:00,57.2,29.1,29.29,SSE,155,0.0,0.0,34,0.00,,CLR,0.00,VWS V14.01,2013-10-10 03:14:00,
2013-10-09 22:15:00,57.0,29.0,29.29,SSE,155,0.0,0.0,34,0.00,,CLR,0.00,VWS V14.01,2013-10-10 03:15:00,
2013-10-09 22:16:00,57.0,29.0,29.29,SSE,155,0.0,0.0,34,0.00,,CLR,0.00,VWS V14.01,2013-10-10 03:16:00,
2013-10-09 22:18:00,56.8,28.8,29.29,SSE,155,0.0,0.0,34,0.00,,CLR,0.00,VWS V14.01,2013-10-10 03:18:00,
2013-10-09 22:19:00,56.8,28.8,29.29,SSE,155,0.0,0.0,34,0.00,,CLR,0.00,VWS V14.01,2013-10-10 03:19:00,
2013-10-09 22:21:00,56.8,28.8,29.29,SSE,155,0.0,0.0,34,0.00,,CLR,0.00,VWS V14.01,2013-10-10 03:21:00,
2013-10-09 22:22:00,56.7,28.6,29.29,SSE,155,0.0,0.0,34,0.00,,CLR,0.00,VWS V14.01,2013-10-10 03:22:00,
2013-10-09 22:23:00,56.7,28.6,29.29,SSE,156,0.0,0.0,34,0.00,,CLR,0.00,VWS V14.01,2013-10-10 03:23:00,
2013-10-09 22:25:00,56.7,32.6,29.29,SSE,156,0.0,0.0,40,0.00,,CLR,0.00,VWS V14.01,2013-10-10 03:25:00,
2013-10-09 22:26:00,56.7,32.6,29.29,SSE,156,0.0,0.0,40,0.00,,CLR,0.00,VWS V14.01,2013-10-10 03:26:00,
2013-10-09 22:27:00,56.7,32.6,29.29,SSE,156,0.0,2.2,40,0.00,,CLR,0.00,VWS V14.01,2013-10-10 03:27:00,
2013-10-09 22:28:00,56.7,32.6,29.29,SSE,156,0.0,0.0,40,0.00,,CLR,0.00,VWS V14.01,2013-10-10 03:28:00,
2013-10-09 22:31:00,56.8,32.8,29.29,SSE,156,2.7,2.7,40,0.00,,CLR,0.00,VWS V14.01,2013-10-10 03:31:00,
2013-10-09 22:32:00,56.8,32.8,29.29,SSE,156,3.1,3.1,40,0.00,,CLR,0.00,VWS V14.01,2013-10-10 03:32:00,
2013-10-09 22:33:00,56.8,32.8,29.29,SSE,156,3.1,3.1,40,0.00,,CLR,0.00,VWS V14.01,2013-10-10 03:33:00,
2013-10-09 22:36:00,56.8,32.8,29.29,SSE,156,2.7,2.7,40,0.00,,CLR,0.00,VWS V14.01,2013-10-10 03:36:00,
2013-10-09 22:37:00,56.8,32.8,29.29,SSE,157,2.7,2.7,40,0.00,,CLR,0.00,VWS V14.01,2013-10-10 03:37:00,
2013-10-09 22:38:00,56.8,32.8,29.29,SSE,157,3.1,3.1,40,0.00,,CLR,0.00,VWS V14.01,2013-10-10 03:38:00,
2013-10-09 22:39:00,56.8,32.8,29.29,SSE,156,2.2,2.7,40,0.00,,CLR,0.00,VWS V14.01,2013-10-10 03:39:00,
2013-10-09 22:40:00,57.0,33.0,29.29,SSE,157,3.1,3.6,40,0.00,,CLR,0.00,VWS V14.01,2013-10-10 03:40:00,
2013-10-09 22:42:00,57.0,33.0,29.29,SSE,156,2.7,2.7,40,0.00,,CLR,0.00,VWS V14.01,2013-10-10 03:42:00,
2013-10-09 22:43:00,57.0,33.0,29.29,SSE,156,0.0,2.7,40,0.00,,CLR,0.00,VWS V14.01,2013-10-10 03:43:00,
2013-10-09 22:44:00,57.0,33.0,29.29,SSE,156,0.0,2.7,40,0.00,,CLR,0.00,VWS V14.01,2013-10-10 03:44:00,
2013-10-09 22:47:00,57.2,31.8,29.29,SSE,154,3.1,3.1,38,0.00,,CLR,0.00,VWS V14.01,2013-10-10 03:47:00,
2013-10-09 22:48:00,57.2,31.8,29.29,SSE,154,2.2,3.6,38,0.00,,CLR,0.00,VWS V14.01,2013-10-10 03:48:00,
2013-10-09 22:49:00,57.2,31.8,29.29,SSE,154,2.7,3.6,38,0.00,,CLR,0.00,VWS V14.01,2013-10-10 03:49:00,
2013-10-09 22:50:00,57.2,31.8,29.29,SSE,154,0.0,2.7,38,0.00,,CLR,0.00,VWS V14.01,2013-10-10 03:50:00,
2013-10-09 22:53:00,57.4,32.0,29.29,SSE,154,0.0,0.0,38,0.00,,CLR,0.00,VWS V14.01,2013-10-10 03:53:00,
2013-10-09 22:54:00,57.4,32.0,29.29,SSE,154,0.0,0.0,38,0.00,,CLR,0.00,VWS V14.01,2013-10-10 03:54:00,
2013-10-09 22:55:00,57.2,31.8,29.29,SSE,154,0.0,0.0,38,0.00,,CLR,0.00,VWS V14.01,2013-10-10 03:55:00,
2013-10-09 22:56:00,57.2,31.8,29.29,SSE,154,0.0,0.0,38,0.00,,CLR,0.00,VWS V14.01,2013-10-10 03:56:00,
2013-10-09 22:59:00,57.2,31.8,29.29,SSE,154,0.0,0.0,38,0.00,,CLR,0.00,VWS V14.01,2013-10-10 03:59:00,
2013-10-09 23:00:00,57.2,31.8,29.29,SSE,154,0.0,0.0,38,0.00,,CLR,0.00,VWS V14.01,2013-10-10 04:00:00,
2013-10-09 23:01:00,57.2,31.8,29.29,SSE,154,0.0,0.0,38,0.00,,CLR,0.00,VWS V14.01,2013-10-10 04:01:00,
2013-10-09 23:02:00,57.2,31.8,29.29,SSE,154,0.0,0.0,38,0.00,,CLR,0.00,VWS V14.01,2013-10-10 04:02:00,
2013-10-09 23:07:00,57.0,33.0,29.29,SSE,154,2.7,2.7,40,0.00,,CLR,0.00,VWS V14.01,2013-10-10 04:07:00,
2013-10-09 23:08:00,57.0,33.0,29.29,SSE,154,2.2,2.7,40,0.00,,CLR,0.00,VWS V14.01,2013-10-10 04:08:00,
2013-10-09 23:12:00,57.0,33.0,29.29,SSE,154,3.1,3.1,40,0.00,,CLR,0.00,VWS V14.01,2013-10-10 04:12:00,
2013-10-09 23:13:00,57.0,33.0,29.29,SSE,153,2.7,3.1,40,0.00,,CLR,0.00,VWS V14.01,2013-10-10 04:13:00,
2013-10-09 23:14:00,57.0,33.0,29.29,SSE,153,2.7,2.7,40,0.00,,CLR,0.00,VWS V14.01,2013-10-10 04:14:00,
2013-10-09 23:17:00,57.0,33.0,29.29,SSE,153,0.0,0.0,40,0.00,,CLR,0.00,VWS V14.01,2013-10-10 04:17:00,
2013-10-09 23:18:00,56.8,32.8,29.29,SSE,153,0.0,0.0,40,0.00,,CLR,0.00,VWS V14.01,2013-10-10 04:18:00,
2013-10-09 23:19:00,56.8,32.8,29.29,SSE,153,0.0,0.0,40,0.00,,CLR,0.00,VWS V14.01,2013-10-10 04:19:00,
2013-10-09 23:20:00,56.8,32.8,29.29,SSE,154,0.0,0.0,40,0.00,,CLR,0.00,VWS V14.01,2013-10-10 04:20:00,
2013-10-09 23:22:00,56.8,32.8,29.29,SSE,147,3.1,3.1,40,0.00,,CLR,0.00,VWS V14.01,2013-10-10 04:22:00,
2013-10-09 23:23:00,56.8,32.8,29.29,SE,146,2.7,3.1,40,0.00,,CLR,0.00,VWS V14.01,2013-10-10 04:23:00,
2013-10-09 23:24:00,56.8,32.8,29.29,SSE,147,2.7,3.1,40,0.00,,CLR,0.00,VWS V14.01,2013-10-10 04:24:00,
2013-10-09 23:25:00,57.0,33.0,29.29,SSE,147,2.2,2.7,40,0.00,,CLR,0.00,VWS V14.01,2013-10-10 04:25:00,
2013-10-09 23:28:00,57.0,33.0,29.29,SSE,147,0.0,0.0,40,0.00,,CLR,0.00,VWS V14.01,2013-10-10 04:28:00,
2013-10-09 23:29:00,57.0,33.0,29.29,SSE,147,0.0,0.0,40,0.00,,CLR,0.00,VWS V14.01,2013-10-10 04:29:00,
2013-10-09 23:30:00,57.0,33.0,29.29,SSE,147,0.0,0.0,40,0.00,,CLR,0.00,VWS V14.01,2013-10-10 04:30:00,
2013-10-09 23:33:00,56.8,32.8,29.29,SE,146,0.0,2.2,40,0.00,,CLR,0.00,VWS V14.01,2013-10-10 04:33:00,
2013-10-09 23:34:00,56.8,32.8,29.29,SSE,147,2.2,2.7,40,0.00,,CLR,0.00,VWS V14.01,2013-10-10 04:34:00,
2013-10-09 23:35:00,56.8,32.8,29.29,SSE,147,0.0,0.0,40,0.00,,CLR,0.00,VWS V14.01,2013-10-10 04:35:00,
2013-10-09 23:36:00,56.8,32.8,29.29,SSE,147,0.0,0.0,40,0.00,,CLR,0.00,VWS V14.01,2013-10-10 04:36:00,
2013-10-09 23:39:00,56.8,32.8,29.29,SSE,147,0.0,2.7,40,0.00,,CLR,0.00,VWS V14.01,2013-10-10 04:39:00,
2013-10-09 23:40:00,56.8,32.8,29.29,SSE,147,0.0,2.7,40,0.00,,CLR,0.00,VWS V14.01,2013-10-10 04:40:00,
2013-10-09 23:41:00,56.8,32.8,29.29,SSE,147,2.2,2.2,40,0.00,,CLR,0.00,VWS V14.01,2013-10-10 04:41:00,
2013-10-09 23:42:00,56.8,32.8,29.29,SSE,147,0.0,2.2,40,0.00,,CLR,0.00,VWS V14.01,2013-10-10 04:42:00,
2013-10-09 23:45:00,56.8,32.8,29.29,SSE,147,0.0,0.0,40,0.00,,CLR,0.00,VWS V14.01,2013-10-10 04:45:00,
2013-10-09 23:46:00,56.8,32.8,29.29,SSE,147,3.1,3.1,40,0.00,,CLR,0.00,VWS V14.01,2013-10-10 04:46:00,
2013-10-09 23:47:00,56.8,32.8,29.29,SSE,147,3.1,3.1,40,0.00,,CLR,0.00,VWS V14.01,2013-10-10 04:47:00,
2013-10-09 23:51:00,56.8,32.8,29.29,SSE,147,0.0,0.0,40,0.00,,CLR,0.00,VWS V14.01,2013-10-10 04:51:00,
2013-10-09 23:52:00,56.7,32.6,29.29,SSE,147,2.2,2.7,40,0.00,,CLR,0.00,VWS V14.01,2013-10-10 04:52:00,
2013-10-09 23:53:00,56.7,32.6,29.29,SSE,147,2.2,2.7,40,0.00,,CLR,0.00,VWS V14.01,2013-10-10 04:53:00,
2013-10-09 23:54:00,56.7,32.6,29.29,SSE,147,0.0,2.7,40,0.00,,CLR,0.00,VWS V14.01,2013-10-10 04:54:00,
2013-10-09 23:56:00,56.7,32.6,29.29,SSE,149,0.0,2.7,40,0.00,,CLR,0.00,VWS V14.01,2013-10-10 04:56:00,
2013-10-09 23:57:00,56.7,32.6,29.29,SSE,149,0.0,0.0,40,0.00,,CLR,0.00,VWS V14.01,2013-10-10 04:57:00,
2013-10-09 23:58:00,56.7,32.6,29.29,SSE,149,0.0,0.0,40,0.00,,CLR,0.00,VWS V14.01,2013-10-10 04:58:00,